GREAT EAST LAKE DAM: From 09/18/2018 00:00 to 11/19/2018 00:00

Date LAKE ELEVATION [FT] PRECIPITATION INCREMENT [IN] PRECIPITATION TOTAL [IN] AIR TEMPERATURE [F] RELATIVE HUMIDITY [%]
11/17/2018 14:00 572.66 0.13 -- 42.1 26.0
11/17/2018 13:00 572.67 0.16 -- 41.6 26.0
11/17/2018 12:00 572.68 0.00 -- 40.4 26.0
11/17/2018 11:00 572.67 0.00 -- 38.7 26.0
11/17/2018 10:00 572.67 0.00 -- 38.1 26.0
11/17/2018 09:00 572.70 0.00 -- 35.4 26.0
11/17/2018 08:00 572.69 0.01 -- 34.3 26.0
11/17/2018 07:00 572.69 0.00 -- 34.3 26.0
11/17/2018 06:00 572.69 0.00 -- 35.0 26.0
11/17/2018 05:00 572.72 0.00 -- 33.1 26.0
11/17/2018 04:00 572.70 0.00 -- 31.9 26.0
11/17/2018 03:00 572.70 0.00 -- 31.7 26.0
11/17/2018 02:00 572.70 0.00 -- 29.4 26.0
11/17/2018 01:00 572.72 0.00 -- 30.2 26.0
11/17/2018 00:00 572.71 0.00 -- 30.1 26.0
11/16/2018 23:00 572.71 0.00 -- 30.0 26.0
11/16/2018 22:00 572.72 0.00 -- 31.6 26.0
11/16/2018 21:00 572.71 0.00 -- 31.7 26.0
11/16/2018 20:00 572.73 0.00 -- 32.0 26.0
11/16/2018 19:00 572.74 0.00 -- 30.2 26.0
11/16/2018 18:00 572.74 0.00 -- 29.9 26.0
11/16/2018 17:00 572.73 0.00 -- 30.5 26.0
11/16/2018 16:00 572.72 0.00 -- 29.7 26.0
11/16/2018 15:00 572.72 0.00 -- 29.0 27.0
11/16/2018 14:00 572.76 0.00 -- 27.4 26.0
11/16/2018 13:00 572.73 0.00 -- 26.5 26.0
11/16/2018 12:00 572.73 0.00 -- 25.6 26.0
11/16/2018 11:00 572.74 0.00 -- 25.0 26.0
11/16/2018 10:00 572.75 0.00 -- 25.1 27.0
11/16/2018 09:00 572.74 0.00 -- 24.6 27.0
11/16/2018 08:00 572.74 0.00 -- 24.9 27.0
11/16/2018 07:00 572.75 0.00 -- 25.0 28.0
11/16/2018 06:00 572.75 0.00 -- 25.0 28.0
11/16/2018 05:00 572.77 0.00 -- 24.9 28.0
11/16/2018 04:00 572.74 0.00 -- 24.1 29.0
11/16/2018 03:00 572.75 0.00 -- 23.9 28.0
11/16/2018 02:00 572.74 0.00 -- 23.4 29.0
11/16/2018 01:00 572.73 0.00 -- 22.6 29.0
11/16/2018 00:00 572.71 0.00 0.00 24.8 29.0
11/15/2018 23:00 572.70 0.00 -- 25.3 29.0
11/15/2018 22:00 572.73 0.00 -- 25.5 30.0
11/15/2018 21:00 572.74 0.00 -- 25.3 30.0
11/15/2018 20:00 572.75 0.00 -- 25.5 31.0
11/15/2018 19:00 572.75 0.00 -- 25.9 31.0
11/15/2018 18:00 572.72 0.00 -- 26.1 31.0
11/15/2018 17:00 572.73 0.00 -- 26.8 31.0
11/15/2018 16:00 572.76 0.00 -- 27.7 32.0
11/15/2018 15:00 572.76 0.00 -- 27.9 32.0
11/15/2018 14:00 572.74 0.00 -- 28.1 31.0
11/15/2018 13:00 572.78 0.00 -- 27.1 30.0
11/15/2018 12:00 572.77 0.00 -- 25.4 30.0
11/15/2018 11:00 572.76 0.00 -- 22.4 31.0
11/15/2018 10:00 572.75 0.00 -- 20.5 32.0
11/15/2018 09:00 572.78 0.00 -- 18.6 33.0
11/15/2018 08:00 572.75 0.00 -- 16.8 34.0
11/15/2018 07:00 572.77 0.00 -- 16.0 36.0
11/15/2018 06:00 572.76 0.00 -- 15.8 36.0
11/15/2018 05:00 572.77 0.00 -- 16.3 37.0
11/15/2018 04:00 572.74 0.00 -- 17.2 40.0
11/15/2018 03:00 572.76 0.00 -- 16.1 45.0
11/15/2018 02:00 572.78 0.00 -- 16.7 46.0
11/15/2018 01:00 572.75 0.00 -- 17.8 50.0
11/15/2018 00:00 572.78 0.00 0.00 17.0 52.0
11/14/2018 23:00 572.78 0.00 -- 17.0 60.0
11/14/2018 22:00 572.78 0.00 -- 17.2 69.0
11/14/2018 21:00 572.80 0.00 -- 18.4 77.0
11/14/2018 20:00 572.78 0.00 -- 18.8 96.0
11/14/2018 19:00 572.79 0.00 -- 19.8 100.0
11/14/2018 18:00 572.81 0.00 -- 20.1 100.0
11/14/2018 17:00 572.83 0.00 -- 21.6 100.0
11/14/2018 16:00 572.85 0.00 -- 23.6 100.0
11/14/2018 15:00 572.80 0.00 -- 24.7 100.0
11/14/2018 14:00 572.81 0.00 -- 24.5 100.0
11/14/2018 13:00 572.83 0.00 -- 23.7 99.0
11/14/2018 12:00 572.81 0.00 -- 23.5 96.0
11/14/2018 11:00 572.76 0.00 -- 23.5 86.0
11/14/2018 10:00 572.81 0.00 -- 23.5 66.0
11/14/2018 09:00 572.82 0.00 -- 22.8 58.0
11/14/2018 08:00 572.82 0.00 -- 23.4 48.0
11/14/2018 07:00 572.83 0.00 -- 24.0 51.0
11/14/2018 06:00 572.82 0.00 -- 24.1 54.0
11/14/2018 05:00 572.79 0.00 -- 24.7 66.0
11/14/2018 04:00 572.84 0.00 -- 25.7 58.0
11/14/2018 03:00 572.82 0.00 -- 26.6 69.0
11/14/2018 02:00 572.79 0.00 -- 28.3 47.0
11/14/2018 01:00 572.79 0.00 -- 31.2 31.0
11/14/2018 00:00 572.78 0.00 0.00 34.3 25.0
11/13/2018 23:00 572.83 0.00 -- 37.3 26.0
11/13/2018 22:00 572.80 0.00 -- 38.0 26.0
11/13/2018 21:00 572.79 0.00 -- 37.8 26.0
11/13/2018 20:00 572.82 0.00 -- 38.8 26.0
11/13/2018 19:00 572.84 0.00 -- 38.1 25.0
11/13/2018 18:00 572.78 0.00 -- 38.7 25.0
11/13/2018 17:00 572.78 0.00 -- 38.1 25.0
11/13/2018 16:00 572.77 0.00 -- 36.6 25.0
11/13/2018 15:00 572.76 0.00 -- 35.8 25.0
11/13/2018 14:00 572.79 0.02 -- 35.1 25.0
11/13/2018 13:00 572.74 0.06 -- 34.7 25.0
11/13/2018 12:00 572.76 0.08 -- 34.8 25.0
11/13/2018 11:00 572.68 0.10 -- 35.4 25.0
11/13/2018 10:00 572.70 0.06 -- 35.9 25.0
11/13/2018 09:00 572.67 0.13 -- 34.5 25.0
11/13/2018 08:00 572.69 0.11 -- 33.8 25.0
11/13/2018 07:00 572.68 0.08 -- 33.4 25.0
11/13/2018 06:00 572.67 0.13 -- 33.3 25.0
11/13/2018 05:00 572.63 0.10 -- 33.3 26.0
11/13/2018 04:00 572.64 0.03 -- 33.4 26.0
11/13/2018 03:00 572.62 0.00 -- 34.1 26.0
11/13/2018 02:00 572.63 0.00 -- 34.1 26.0
11/13/2018 01:00 572.65 0.00 -- 34.3 27.0
11/13/2018 00:00 572.65 0.00 0.90 33.0 26.0
11/12/2018 23:00 572.66 0.00 -- 32.5 27.0
11/12/2018 22:00 572.66 0.00 -- 31.6 27.0
11/12/2018 21:00 572.68 0.00 -- 30.9 27.0
11/12/2018 20:00 572.66 0.00 -- 30.9 28.0
11/12/2018 19:00 572.68 0.00 -- 31.2 28.0
11/12/2018 18:00 572.66 0.00 -- 33.2 29.0
11/12/2018 17:00 572.66 0.00 -- 37.6 31.0
11/12/2018 16:00 572.68 0.00 -- 42.6 29.0
11/12/2018 15:00 572.69 0.00 -- 42.8 29.0
11/12/2018 14:00 572.66 0.00 -- 40.6 28.0
11/12/2018 13:00 572.69 0.00 -- 39.5 28.0
11/12/2018 12:00 572.68 0.00 -- 37.8 29.0
11/12/2018 11:00 572.68 0.00 -- 35.0 30.0
11/12/2018 10:00 572.70 0.00 -- 32.5 30.0
11/12/2018 09:00 572.67 0.00 -- 29.7 30.0
11/12/2018 08:00 572.70 0.00 -- 25.1 31.0
11/12/2018 07:00 572.71 0.00 -- 25.6 32.0
11/12/2018 06:00 572.71 0.00 -- 25.9 32.0
11/12/2018 05:00 572.70 0.00 -- 26.1 33.0
11/12/2018 04:00 572.71 0.00 -- 28.3 34.0
11/12/2018 03:00 572.71 0.00 -- 27.3 36.0
11/12/2018 02:00 572.73 0.00 -- 26.7 38.0
11/12/2018 01:00 572.73 0.00 -- 28.8 42.0
11/12/2018 00:00 572.71 0.00 0.00 31.6 42.0
11/11/2018 23:00 572.73 0.00 -- 30.6 43.0
11/11/2018 22:00 572.73 0.00 -- 27.7 46.0
11/11/2018 21:00 572.71 0.00 -- 27.2 54.0
11/11/2018 20:00 572.74 0.00 -- 28.4 60.0
11/11/2018 19:00 572.73 0.00 -- 29.5 71.0
11/11/2018 18:00 572.73 0.00 -- 33.8 94.0
11/11/2018 17:00 572.73 0.00 -- 35.4 100.0
11/11/2018 16:00 572.74 0.00 -- 35.8 85.0
11/11/2018 15:00 572.73 0.00 -- 35.5 79.0
11/11/2018 14:00 572.67 0.00 -- 34.7 80.0
11/11/2018 13:00 572.78 0.00 -- 33.6 73.0
11/11/2018 12:00 572.75 0.00 -- 32.0 71.0
11/11/2018 11:00 572.76 0.00 -- 31.5 73.0
11/11/2018 10:00 572.75 0.00 -- 31.4 75.0
11/11/2018 09:00 572.78 0.00 -- 31.0 70.0
11/11/2018 08:00 572.75 0.00 -- 30.4 64.0
11/11/2018 07:00 572.75 0.00 -- 30.7 65.0
11/11/2018 06:00 572.75 0.00 -- 31.1 62.0
11/11/2018 05:00 572.77 0.00 -- 31.6 66.0
11/11/2018 04:00 572.72 0.00 -- 32.0 65.0
11/11/2018 03:00 572.73 0.00 -- 32.9 79.0
11/11/2018 02:00 572.76 0.00 -- 33.8 57.0
11/11/2018 01:00 572.78 0.00 -- 34.5 39.0
11/11/2018 00:00 572.81 0.00 0.00 34.8 39.0
11/10/2018 23:00 572.75 0.00 -- 34.4 39.0
11/10/2018 22:00 572.75 0.00 -- 34.7 36.0
11/10/2018 21:00 572.82 0.00 -- 34.4 34.0
11/10/2018 20:00 572.81 0.00 -- 34.2 33.0
11/10/2018 19:00 572.83 0.00 -- 35.1 36.0
11/10/2018 18:00 572.77 0.00 -- 36.5 39.0
11/10/2018 17:00 572.79 0.00 -- 37.5 31.0
11/10/2018 16:00 572.79 0.00 -- 39.1 26.0
11/10/2018 15:00 572.83 0.00 -- 39.4 25.0
11/10/2018 14:00 572.83 0.00 -- 41.5 25.0
11/10/2018 13:00 572.80 0.00 -- 41.1 25.0
11/10/2018 12:00 572.82 0.00 -- 40.5 24.0
11/10/2018 11:00 572.79 0.01 -- 38.9 24.0
11/10/2018 10:00 572.80 0.01 -- 37.3 24.0
11/10/2018 09:00 572.77 0.00 -- 36.2 24.0
11/10/2018 08:00 572.74 0.00 -- 35.3 24.0
11/10/2018 07:00 572.79 0.00 -- 35.4 24.0
11/10/2018 06:00 572.80 0.00 -- 35.5 24.0
11/10/2018 05:00 572.77 0.00 -- 35.5 24.0
11/10/2018 04:00 572.81 0.00 -- 36.0 24.0
11/10/2018 03:00 572.77 0.02 -- 37.8 24.0
11/10/2018 02:00 572.78 0.04 -- 38.9 24.0
11/10/2018 01:00 572.78 0.06 -- 38.9 24.0
11/10/2018 00:00 572.78 0.14 0.14 38.3 24.0
11/09/2018 23:00 572.77 0.16 -- 38.5 24.0
11/09/2018 22:00 572.76 0.16 -- 38.5 24.0
11/09/2018 21:00 572.79 0.08 -- 38.0 24.0
11/09/2018 20:00 572.77 0.00 -- 40.1 24.0
11/09/2018 19:00 572.73 0.00 -- 40.4 24.0
11/09/2018 18:00 572.82 0.00 -- 40.5 25.0
11/09/2018 17:00 572.74 0.00 -- 41.2 25.0
11/09/2018 16:00 572.73 0.00 -- 41.9 24.0
11/09/2018 15:00 572.74 0.00 -- 42.6 25.0
11/09/2018 14:00 572.74 0.00 -- 43.4 25.0
11/09/2018 13:00 572.75 0.00 -- 43.1 25.0
11/09/2018 12:00 572.77 0.00 -- 43.0 25.0
11/09/2018 11:00 572.76 0.00 -- 41.8 25.0
11/09/2018 10:00 572.76 0.00 -- 36.4 25.0
11/09/2018 09:00 572.74 0.00 -- 31.4 25.0
11/09/2018 08:00 572.76 0.00 -- 29.0 25.0
11/09/2018 07:00 572.75 0.00 -- 28.6 25.0
11/09/2018 06:00 572.79 0.00 -- 29.1 25.0
11/09/2018 05:00 572.78 0.00 -- 30.1 25.0
11/09/2018 04:00 572.76 0.00 -- 31.3 25.0
11/09/2018 03:00 572.80 0.00 -- 32.4 26.0
11/09/2018 02:00 572.78 0.00 -- 33.3 25.0
11/09/2018 01:00 572.78 0.00 -- 37.2 26.0
11/09/2018 00:00 572.77 0.00 0.54 36.8 26.0
11/08/2018 23:00 572.79 0.00 -- 37.9 25.0
11/08/2018 22:00 572.80 0.00 -- 40.9 26.0
11/08/2018 21:00 572.80 0.00 -- 37.3 26.0
11/08/2018 20:00 572.80 0.00 -- 37.0 27.0
11/08/2018 19:00 572.80 0.00 -- 39.5 27.0
11/08/2018 18:00 572.80 0.00 -- 42.0 29.0
11/08/2018 17:00 572.78 0.00 -- 47.1 32.0
11/08/2018 16:00 572.80 0.00 -- 47.8 30.0
11/08/2018 15:00 572.82 0.00 -- 48.2 29.0
11/08/2018 14:00 572.80 0.00 -- 48.0 28.0
11/08/2018 13:00 572.83 0.00 -- 47.8 27.0
11/08/2018 12:00 572.80 0.00 -- 46.9 25.0
11/08/2018 11:00 572.81 0.00 -- 45.6 25.0
11/08/2018 10:00 572.83 0.00 -- 43.8 23.0
11/08/2018 09:00 572.82 0.00 -- 40.5 23.0
11/08/2018 08:00 572.84 0.00 -- 38.4 23.0
11/08/2018 07:00 572.84 0.00 -- 40.0 23.0
11/08/2018 06:00 572.83 0.00 -- 38.4 23.0
11/08/2018 05:00 572.82 0.00 -- 40.3 23.0
11/08/2018 04:00 572.85 0.00 -- 43.4 23.0
11/08/2018 03:00 572.85 0.00 -- 44.5 23.0
11/08/2018 02:00 572.85 0.00 -- 46.2 23.0
11/08/2018 01:00 572.86 0.00 -- 47.1 23.0
11/08/2018 00:00 572.87 0.00 0.00 44.1 23.0
11/07/2018 23:00 572.86 0.00 -- 42.0 23.0
11/07/2018 22:00 572.88 0.00 -- 45.1 23.0
11/07/2018 21:00 572.85 0.00 -- 50.1 23.0
11/07/2018 20:00 572.86 0.00 -- 47.4 23.0
11/07/2018 19:00 572.87 0.00 -- 48.6 23.0
11/07/2018 18:00 572.87 0.00 -- 50.9 23.0
11/07/2018 17:00 572.89 0.00 -- 53.6 23.0
11/07/2018 16:00 572.86 0.00 -- 53.8 23.0
11/07/2018 15:00 572.85 0.00 -- 53.9 23.0
11/07/2018 14:00 572.88 0.00 -- 54.1 23.0
11/07/2018 13:00 572.85 0.00 -- 53.8 23.0
11/07/2018 12:00 572.84 0.00 -- 54.1 23.0
11/07/2018 11:00 572.85 0.00 -- 52.5 23.0
11/07/2018 10:00 572.87 0.00 -- 51.0 23.0
11/07/2018 09:00 572.88 0.00 -- 49.1 23.0
11/07/2018 08:00 572.88 0.00 -- 48.4 23.0
11/07/2018 07:00 572.92 0.00 -- 47.6 22.0
11/07/2018 06:00 572.87 0.00 -- 46.8 22.0
11/07/2018 05:00 572.89 0.00 -- 49.4 22.0
11/07/2018 04:00 572.89 0.00 -- 46.7 22.0
11/07/2018 03:00 572.90 0.00 -- 48.2 22.0
11/07/2018 02:00 572.86 0.00 -- 49.7 22.0
11/07/2018 01:00 572.89 0.00 -- 50.0 22.0
11/07/2018 00:00 572.88 0.00 0.00 49.5 22.0
11/06/2018 23:00 572.86 0.00 -- 48.7 22.0
11/06/2018 22:00 572.93 0.01 -- 46.6 22.0
11/06/2018 21:00 572.83 0.02 -- 46.2 22.0
11/06/2018 20:00 572.92 0.03 -- 45.6 22.0
11/06/2018 19:00 572.89 0.00 -- 45.7 22.0
11/06/2018 18:00 572.83 0.00 -- 45.9 22.0
11/06/2018 17:00 572.87 0.03 -- 46.1 22.0
11/06/2018 16:00 572.69 0.17 -- 46.2 22.0
11/06/2018 15:00 572.80 0.10 -- 45.9 22.0
11/06/2018 14:00 572.84 0.01 -- 45.8 22.0
11/06/2018 13:00 572.85 0.00 -- 45.9 23.0
11/06/2018 12:00 572.86 0.01 -- 45.1 22.0
11/06/2018 11:00 572.83 0.00 -- 43.8 22.0
11/06/2018 10:00 572.86 0.00 -- 42.5 22.0
11/06/2018 09:00 572.85 0.01 -- 41.1 23.0
11/06/2018 08:00 572.85 0.01 -- 40.3 23.0
11/06/2018 07:00 572.88 0.00 -- 40.1 23.0
11/06/2018 06:00 572.83 0.02 -- 39.3 23.0
11/06/2018 05:00 572.86 0.00 -- 39.0 23.0
11/06/2018 04:00 572.84 0.02 -- 38.7 23.0
11/06/2018 03:00 572.86 0.10 -- 37.7 23.0
11/06/2018 02:00 572.85 0.10 -- 37.1 23.0
11/06/2018 01:00 572.85 0.06 -- 36.4 23.0
11/06/2018 00:00 572.85 0.10 0.70 36.2 23.0
11/05/2018 23:00 572.85 0.06 -- 36.0 23.0
11/05/2018 22:00 572.80 0.00 -- 36.6 23.0
11/05/2018 21:00 572.85 0.00 -- 36.3 23.0
11/05/2018 20:00 572.82 0.00 -- 36.6 23.0
11/05/2018 19:00 572.85 0.00 -- 37.1 23.0
11/05/2018 18:00 572.88 0.00 -- 37.2 23.0
11/05/2018 17:00 572.86 0.00 -- 37.4 23.0
11/05/2018 16:00 572.90 0.00 -- 36.9 23.0
11/05/2018 15:00 572.81 0.00 -- 36.5 23.0
11/05/2018 14:00 572.88 0.00 -- 36.5 23.0
11/05/2018 13:00 572.81 0.00 -- 35.6 23.0
11/05/2018 12:00 572.91 0.00 -- 35.3 22.0
11/05/2018 11:00 572.90 0.00 -- 34.4 23.0
11/05/2018 10:00 572.95 0.00 -- 33.4 23.0
11/05/2018 09:00 572.87 0.00 -- 32.5 22.0
11/05/2018 08:00 572.91 0.00 -- 30.4 23.0
11/05/2018 07:00 572.96 0.00 -- 30.0 23.0
11/05/2018 06:00 572.82 0.00 -- 29.6 23.0
11/05/2018 05:00 572.90 0.00 -- 29.3 23.0
11/05/2018 04:00 572.86 0.00 -- 29.9 23.0
11/05/2018 03:00 572.90 0.00 -- 30.1 23.0
11/05/2018 02:00 572.91 0.00 -- 29.8 24.0
11/05/2018 01:00 572.88 0.00 -- 29.8 24.0
11/05/2018 00:00 572.87 0.00 0.16 30.2 24.0
11/04/2018 23:00 572.95 0.00 -- 30.5 23.0
11/04/2018 22:00 572.93 0.00 -- 31.6 24.0
11/04/2018 21:00 572.92 0.00 -- 32.4 24.0
11/04/2018 20:00 572.90 0.00 -- 34.0 24.0
11/04/2018 19:00 572.92 0.00 -- 36.3 25.0
11/04/2018 18:00 572.91 0.00 -- 38.7 25.0
11/04/2018 17:00 572.91 0.00 -- 42.0 26.0
11/04/2018 16:00 572.92 0.00 -- 43.5 26.0
11/04/2018 15:00 572.91 0.00 -- 43.4 26.0
11/04/2018 14:00 572.94 0.00 -- 43.5 27.0
11/04/2018 13:00 572.93 0.00 -- 42.7 28.0
11/04/2018 12:00 572.94 0.00 -- 41.7 29.0
11/04/2018 11:00 572.97 0.00 -- 40.9 30.0
11/04/2018 10:00 572.94 0.00 -- 40.2 27.0
11/04/2018 09:00 572.93 0.00 -- 39.7 25.0
11/04/2018 08:00 572.96 0.00 -- 38.9 24.0
11/04/2018 07:00 572.97 0.00 -- 39.0 24.0
11/04/2018 06:00 572.97 0.00 -- 39.7 24.0
11/04/2018 05:00 572.91 0.00 -- 39.1 24.0
11/04/2018 04:00 572.98 0.00 -- 40.4 24.0
11/04/2018 03:00 572.94 0.00 -- 41.0 24.0
11/04/2018 02:00 572.96 0.00 -- 41.7 24.0
11/04/2018 01:00 572.96 0.00 -- 42.2 23.0
11/04/2018 00:00 572.96 0.00 0.00 43.2 23.0
11/03/2018 23:00 572.99 0.00 -- 43.4 23.0
11/03/2018 22:00 572.95 0.00 -- 44.0 23.0
11/03/2018 21:00 572.92 0.00 -- 44.6 23.0
11/03/2018 20:00 572.98 0.00 -- 44.5 23.0
11/03/2018 19:00 572.98 0.00 -- 44.8 23.0
11/03/2018 18:00 572.95 0.00 -- 45.7 23.0
11/03/2018 17:00 572.93 0.00 -- 46.8 23.0
11/03/2018 16:00 573.01 0.02 -- 50.1 22.0
11/03/2018 15:00 572.96 0.00 -- 51.2 22.0
11/03/2018 14:00 572.94 0.00 -- 51.3 22.0
11/03/2018 13:00 572.97 0.00 -- 51.0 23.0
11/03/2018 12:00 572.93 0.02 -- 50.1 23.0
11/03/2018 11:00 572.94 0.02 -- 48.3 23.0
11/03/2018 10:00 572.87 0.02 -- 47.7 23.0
11/03/2018 09:00 572.94 0.05 -- 47.3 23.0
11/03/2018 08:00 572.94 0.09 -- 47.1 23.0
11/03/2018 07:00 572.85 0.04 -- 47.0 23.0
11/03/2018 06:00 572.84 0.02 -- 46.6 23.0
11/03/2018 05:00 572.87 0.00 -- 46.5 23.0
11/03/2018 04:00 572.90 0.11 -- 46.1 23.0
11/03/2018 03:00 572.83 0.16 -- 46.0 23.0
11/03/2018 02:00 572.92 0.03 -- 45.6 23.0
11/03/2018 01:00 572.88 0.02 -- 45.5 22.0
11/03/2018 00:00 572.82 0.00 0.60 46.0 23.0
11/02/2018 23:00 572.88 0.00 -- 46.6 22.0
11/02/2018 22:00 572.86 0.00 -- 46.8 23.0
11/02/2018 21:00 572.83 0.00 -- 47.7 23.0
11/02/2018 20:00 572.86 0.00 -- 48.0 23.0
11/02/2018 19:00 572.87 0.00 -- 48.3 23.0
11/02/2018 18:00 572.87 0.02 -- 48.5 23.0
11/02/2018 17:00 572.79 0.04 -- 48.2 23.0
11/02/2018 16:00 572.86 0.00 -- 48.3 23.0
11/02/2018 15:00 572.85 0.00 -- 47.6 23.0
11/02/2018 14:00 572.93 0.06 -- 46.3 23.0
11/02/2018 13:00 572.94 0.02 -- 45.2 23.0
11/02/2018 12:00 572.86 0.02 -- 44.9 23.0
11/02/2018 11:00 572.88 0.08 -- 44.6 23.0
11/02/2018 10:00 572.83 0.08 -- 44.6 23.0
11/02/2018 09:00 572.74 0.06 -- 44.7 22.0
11/02/2018 08:00 572.85 0.02 -- 45.4 22.0
11/02/2018 07:00 572.73 0.02 -- 45.7 22.0
11/02/2018 06:00 572.82 0.12 -- 45.8 22.0
11/02/2018 05:00 572.80 0.10 -- 45.4 22.0
11/02/2018 04:00 572.80 0.00 -- 45.4 22.0
11/02/2018 03:00 572.82 0.00 -- 45.3 22.0
11/02/2018 02:00 572.81 0.00 -- 45.4 22.0
11/02/2018 01:00 572.83 0.00 -- 45.3 22.0
11/02/2018 00:00 572.81 0.00 0.64 45.5 22.0
11/01/2018 23:00 572.84 0.00 -- 45.8 22.0
11/01/2018 22:00 572.78 0.00 -- 46.0 22.0
11/01/2018 21:00 572.89 0.00 -- 46.3 22.0
11/01/2018 20:00 572.85 0.00 -- 46.8 22.0
11/01/2018 19:00 572.81 0.00 -- 47.1 22.0
11/01/2018 18:00 572.86 0.00 -- 47.8 22.0
11/01/2018 17:00 572.85 0.00 -- 48.3 22.0
11/01/2018 16:00 572.84 0.00 -- 48.5 22.0
11/01/2018 15:00 572.84 0.00 -- 48.0 22.0
11/01/2018 14:00 572.82 0.00 -- 47.3 22.0
11/01/2018 13:00 572.85 0.00 -- 46.8 22.0
11/01/2018 12:00 572.84 0.01 -- 46.1 22.0
11/01/2018 11:00 572.87 0.00 -- 45.7 22.0
11/01/2018 10:00 572.88 0.00 -- 44.2 22.0
11/01/2018 09:00 572.86 0.00 -- 43.4 22.0
11/01/2018 08:00 572.89 0.00 -- 44.8 22.0
11/01/2018 07:00 572.90 0.00 -- 43.9 22.0
11/01/2018 06:00 572.90 0.00 -- 43.2 22.0
11/01/2018 05:00 572.91 0.00 -- 44.5 22.0
11/01/2018 04:00 572.87 0.00 -- 42.9 22.0
11/01/2018 03:00 572.93 0.00 -- 42.2 22.0
11/01/2018 02:00 572.90 0.00 -- 40.6 22.0
11/01/2018 01:00 572.92 0.00 -- 39.9 22.0
11/01/2018 00:00 572.90 0.00 0.01 39.0 22.0
10/31/2018 23:00 572.90 0.00 -- 39.2 22.0
10/31/2018 22:00 572.91 0.00 -- 39.8 22.0
10/31/2018 21:00 572.93 0.00 -- 40.3 22.0
10/31/2018 20:00 572.92 0.00 -- 39.9 22.0
10/31/2018 19:00 572.95 0.00 -- 40.5 22.0
10/31/2018 18:00 572.89 0.00 -- 42.0 22.0
10/31/2018 17:00 572.91 0.00 -- 42.4 22.0
10/31/2018 16:00 573.02 0.00 -- 42.2 23.0
10/31/2018 15:00 572.92 0.00 -- 42.0 23.0
10/31/2018 14:00 572.94 0.00 -- 40.9 23.0
10/31/2018 13:00 572.96 0.00 -- 39.9 23.0
10/31/2018 12:00 572.96 0.00 -- 38.8 23.0
10/31/2018 11:00 572.98 0.00 -- 37.6 23.0
10/31/2018 10:00 573.00 0.00 -- 31.9 24.0
10/31/2018 09:00 572.98 0.00 -- 28.6 23.0
10/31/2018 08:00 572.98 0.00 -- 28.4 23.0
10/31/2018 07:00 572.98 0.00 -- 28.2 23.0
10/31/2018 06:00 572.99 0.00 -- 28.9 23.0
10/31/2018 05:00 573.00 0.00 -- 30.2 23.0
10/31/2018 04:00 573.01 0.00 -- 30.4 23.0
10/31/2018 03:00 573.00 0.00 -- 29.5 23.0
10/31/2018 02:00 573.01 0.00 -- 30.6 23.0
10/31/2018 01:00 572.99 0.00 -- 29.9 23.0
10/31/2018 00:00 573.05 0.00 0.00 30.9 23.0
10/30/2018 23:00 573.00 0.00 -- 32.2 23.0
10/30/2018 22:00 573.04 0.00 -- 35.3 24.0
10/30/2018 21:00 573.06 0.00 -- 37.2 23.0
10/30/2018 20:00 573.05 0.00 -- 37.7 24.0
10/30/2018 19:00 573.01 0.00 -- 38.4 23.0
10/30/2018 18:00 573.02 0.00 -- 40.2 23.0
10/30/2018 17:00 573.02 0.00 -- 41.2 24.0
10/30/2018 16:00 573.02 0.00 -- 41.6 24.0
10/30/2018 15:00 573.04 0.00 -- 41.2 24.0
10/30/2018 14:00 573.05 0.00 -- 41.7 25.0
10/30/2018 13:00 573.05 0.00 -- 42.4 25.0
10/30/2018 12:00 573.04 0.00 -- 41.1 24.0
10/30/2018 11:00 573.04 0.00 -- 40.9 24.0
10/30/2018 10:00 573.07 0.00 -- 38.9 24.0
10/30/2018 09:00 573.08 0.00 -- 37.3 23.0
10/30/2018 08:00 573.10 0.00 -- 37.6 24.0
10/30/2018 07:00 573.11 0.00 -- 39.8 23.0
10/30/2018 06:00 573.09 0.00 -- 40.1 23.0
10/30/2018 05:00 573.10 0.00 -- 36.1 23.0
10/30/2018 04:00 573.11 0.00 -- 36.9 23.0
10/30/2018 03:00 573.09 0.00 -- 38.7 23.0
10/30/2018 02:00 573.13 0.00 -- 39.5 23.0
10/30/2018 01:00 573.12 0.00 -- 40.1 23.0
10/30/2018 00:00 573.12 0.00 0.00 40.2 23.0
10/29/2018 23:00 573.13 0.00 -- 39.4 22.0
10/29/2018 22:00 573.13 0.00 -- 40.4 22.0
10/29/2018 21:00 573.11 0.00 -- 42.6 22.0
10/29/2018 20:00 573.15 0.00 -- 42.0 22.0
10/29/2018 19:00 573.13 0.00 -- 43.3 23.0
10/29/2018 18:00 573.13 0.00 -- 44.3 23.0
10/29/2018 17:00 573.13 0.01 -- 44.4 23.0
10/29/2018 16:00 573.17 0.02 -- 43.7 23.0
10/29/2018 15:00 573.15 0.00 -- 44.2 23.0
10/29/2018 14:00 573.17 0.07 -- 43.6 23.0
10/29/2018 13:00 573.16 0.09 -- 43.4 24.0
10/29/2018 12:00 573.17 0.05 -- 42.8 23.0
10/29/2018 11:00 573.18 0.01 -- 42.0 22.0
10/29/2018 10:00 573.20 0.00 -- 41.0 22.0
10/29/2018 09:00 573.21 0.00 -- 40.3 22.0
10/29/2018 08:00 573.18 0.00 -- 40.4 22.0
10/29/2018 07:00 573.16 0.00 -- 40.6 23.0
10/29/2018 06:00 573.19 0.00 -- 40.2 22.0
10/29/2018 05:00 573.22 0.00 -- 41.1 23.0
10/29/2018 04:00 573.20 0.00 -- 40.3 22.0
10/29/2018 03:00 573.21 0.00 -- 40.7 23.0
10/29/2018 02:00 573.21 0.00 -- 42.9 23.0
10/29/2018 01:00 573.22 0.00 -- 41.6 23.0
10/29/2018 00:00 573.22 0.00 0.25 42.5 23.0
10/28/2018 23:00 573.20 0.00 -- 41.9 23.0
10/28/2018 22:00 573.21 0.00 -- 42.3 22.0
10/28/2018 21:00 573.22 0.00 -- 42.2 23.0
10/28/2018 20:00 573.22 0.00 -- 42.2 23.0
10/28/2018 19:00 573.22 0.00 -- 42.4 23.0
10/28/2018 18:00 573.23 0.00 -- 42.8 24.0
10/28/2018 17:00 573.21 0.00 -- 43.2 24.0
10/28/2018 16:00 573.22 0.00 -- 42.5 24.0
10/28/2018 15:00 573.23 0.00 -- 41.9 24.0
10/28/2018 14:00 573.24 0.00 -- 39.6 24.0
10/28/2018 13:00 573.24 0.00 -- 38.4 24.0
10/28/2018 12:00 573.23 0.00 -- 37.6 24.0
10/28/2018 11:00 573.25 0.00 -- 36.9 24.0
10/28/2018 10:00 573.20 0.00 -- 36.0 24.0
10/28/2018 09:00 573.25 0.00 -- 35.6 24.0
10/28/2018 08:00 573.23 0.00 -- 35.3 24.0
10/28/2018 07:00 573.24 0.01 -- 35.0 24.0
10/28/2018 06:00 573.24 0.00 -- 35.1 24.0
10/28/2018 05:00 573.22 0.00 -- 35.0 25.0
10/28/2018 04:00 573.26 0.00 -- 34.9 25.0
10/28/2018 03:00 573.24 0.00 -- 34.9 24.0
10/28/2018 02:00 573.26 0.01 -- 34.4 24.0
10/28/2018 01:00 573.26 0.00 -- 34.5 24.0
10/28/2018 00:00 573.26 0.01 0.02 34.2 24.0
10/27/2018 23:00 573.23 0.01 -- 34.3 24.0
10/27/2018 22:00 573.29 0.00 -- 34.8 24.0
10/27/2018 21:00 573.28 0.03 -- 34.8 24.0
10/27/2018 20:00 573.27 0.02 -- 35.1 24.0
10/27/2018 19:00 573.24 0.04 -- 35.4 24.0
10/27/2018 18:00 573.32 0.05 -- 35.5 24.0
10/27/2018 17:00 573.21 0.08 -- 35.1 25.0
10/27/2018 16:00 573.20 0.06 -- 35.0 24.0
10/27/2018 15:00 573.29 0.10 -- 34.6 24.0
10/27/2018 14:00 573.28 0.04 -- 34.1 24.0
10/27/2018 13:00 573.26 0.00 -- 33.4 24.0
10/27/2018 12:00 573.24 0.00 -- 32.9 24.0
10/27/2018 11:00 573.23 0.00 -- 35.9 24.0
10/27/2018 10:00 573.26 0.00 -- 35.2 24.0
10/27/2018 09:00 573.24 0.00 -- 34.5 25.0
10/27/2018 08:00 573.26 0.00 -- 34.1 25.0
10/27/2018 07:00 573.24 0.00 -- 33.7 25.0
10/27/2018 06:00 573.28 0.00 -- 33.2 25.0
10/27/2018 05:00 573.28 0.00 -- 33.2 25.0
10/27/2018 04:00 573.23 0.00 -- 33.7 26.0
10/27/2018 03:00 573.20 0.00 -- 32.8 25.0
10/27/2018 02:00 573.32 0.00 -- 33.0 25.0
10/27/2018 01:00 573.28 0.00 -- 32.3 27.0
10/27/2018 00:00 573.29 0.00 0.44 32.3 27.0
10/26/2018 23:00 573.29 0.00 -- 31.6 27.0
10/26/2018 22:00 573.29 0.00 -- 31.0 26.0
10/26/2018 21:00 573.28 0.00 -- 30.6 26.0
10/26/2018 20:00 573.28 0.00 -- 32.1 27.0
10/26/2018 19:00 573.28 0.00 -- 33.6 28.0
10/26/2018 18:00 573.30 0.00 -- 39.5 28.0
10/26/2018 17:00 573.30 0.00 -- 40.8 29.0
10/26/2018 16:00 573.30 0.00 -- 40.2 28.0
10/26/2018 15:00 573.29 0.00 -- 39.7 28.0
10/26/2018 14:00 573.29 0.00 -- 38.6 29.0
10/26/2018 13:00 573.31 0.00 -- 37.6 29.0
10/26/2018 12:00 573.34 0.00 -- 35.7 29.0
10/26/2018 11:00 573.34 0.00 -- 34.0 30.0
10/26/2018 10:00 573.29 0.00 -- 32.8 29.0
10/26/2018 09:00 573.36 0.00 -- 31.5 30.0
10/26/2018 08:00 573.32 0.00 -- 30.9 31.0
10/26/2018 07:00 573.35 0.00 -- 31.5 33.0
10/26/2018 06:00 573.34 0.00 -- 31.3 31.0
10/26/2018 05:00 573.34 0.00 -- 31.3 29.0
10/26/2018 04:00 573.35 0.00 -- 30.9 29.0
10/26/2018 03:00 573.34 0.00 -- 31.6 29.0
10/26/2018 02:00 573.35 0.00 -- 30.5 30.0
10/26/2018 01:00 573.34 0.00 -- 31.4 31.0
10/26/2018 00:00 573.32 0.00 0.00 32.0 31.0
10/25/2018 23:00 573.32 0.00 -- 32.1 31.0
10/25/2018 22:00 573.37 0.00 -- 32.6 31.0
10/25/2018 21:00 573.34 0.00 -- 33.2 32.0
10/25/2018 20:00 573.38 0.00 -- 33.5 32.0
10/25/2018 19:00 573.34 0.00 -- 34.4 31.0
10/25/2018 18:00 573.37 0.00 -- 35.6 31.0
10/25/2018 17:00 573.39 0.00 -- 37.0 31.0
10/25/2018 16:00 573.34 0.00 -- 37.4 30.0
10/25/2018 15:00 573.42 0.00 -- 37.9 28.0
10/25/2018 14:00 573.36 0.00 -- 39.8 26.0
10/25/2018 13:00 573.39 0.00 -- 39.5 25.0
10/25/2018 12:00 573.36 0.00 -- 40.0 25.0
10/25/2018 11:00 573.39 0.00 -- 39.3 25.0
10/25/2018 10:00 573.41 0.00 -- 39.0 24.0
10/25/2018 09:00 573.40 0.00 -- 37.9 24.0
10/25/2018 08:00 573.39 0.00 -- 36.1 25.0
10/25/2018 07:00 573.42 0.00 -- 35.9 24.0
10/25/2018 06:00 573.41 0.00 -- 32.3 24.0
10/25/2018 05:00 573.42 0.00 -- 32.1 24.0
10/25/2018 04:00 573.42 0.00 -- 32.6 24.0
10/25/2018 03:00 573.39 0.00 -- 34.6 25.0
10/25/2018 02:00 573.41 0.00 -- 36.7 25.0
10/25/2018 01:00 573.42 0.00 -- 39.5 25.0
10/25/2018 00:00 573.41 0.00 0.00 39.7 24.0
10/24/2018 23:00 573.44 0.00 -- 39.2 24.0
10/24/2018 22:00 573.45 0.00 -- 40.7 24.0
10/24/2018 21:00 573.45 0.00 -- 41.5 24.0
10/24/2018 20:00 573.44 0.00 -- 41.8 24.0
10/24/2018 19:00 573.43 0.00 -- 42.5 24.0
10/24/2018 18:00 573.44 0.00 -- 43.8 25.0
10/24/2018 17:00 573.47 0.00 -- 44.8 25.0
10/24/2018 16:00 573.45 0.00 -- 44.0 25.0
10/24/2018 15:00 573.45 0.00 -- 42.8 24.0
10/24/2018 14:00 573.44 0.00 -- 41.9 25.0
10/24/2018 13:00 573.45 0.00 -- 39.9 25.0
10/24/2018 12:00 573.45 0.00 -- 38.7 24.0
10/24/2018 11:00 573.46 0.00 -- 38.6 24.0
10/24/2018 10:00 573.45 0.00 -- 37.8 25.0
10/24/2018 09:00 573.45 0.00 -- 37.7 24.0
10/24/2018 08:00 573.45 0.00 -- 37.5 25.0
10/24/2018 07:00 573.45 0.00 -- 37.6 25.0
10/24/2018 06:00 573.46 0.00 -- 37.4 25.0
10/24/2018 05:00 573.47 0.00 -- 37.2 25.0
10/24/2018 04:00 573.46 0.00 -- 37.1 26.0
10/24/2018 03:00 573.47 0.00 -- 36.9 25.0
10/24/2018 02:00 573.47 0.00 -- 37.6 25.0
10/24/2018 01:00 573.48 0.00 -- 37.8 24.0
10/24/2018 00:00 573.48 0.00 0.00 37.3 25.0
10/23/2018 23:00 573.46 0.01 -- 36.9 25.0
10/23/2018 22:00 573.48 0.08 -- 36.6 25.0
10/23/2018 21:00 573.50 0.16 -- 36.5 25.0
10/23/2018 20:00 573.48 0.19 -- 38.1 24.0
10/23/2018 19:00 573.44 0.00 -- 43.8 23.0
10/23/2018 18:00 573.44 0.00 -- 43.9 23.0
10/23/2018 17:00 573.44 0.01 -- 43.4 23.0
10/23/2018 16:00 573.43 0.01 -- 43.4 23.0
10/23/2018 15:00 573.45 0.00 -- 44.6 24.0
10/23/2018 14:00 573.45 0.00 -- 46.1 25.0
10/23/2018 13:00 573.44 0.00 -- 45.6 25.0
10/23/2018 12:00 573.47 0.00 -- 44.4 25.0
10/23/2018 11:00 573.45 0.00 -- 41.6 25.0
10/23/2018 10:00 573.45 0.00 -- 39.9 25.0
10/23/2018 09:00 573.46 0.00 -- 37.8 26.0
10/23/2018 08:00 573.45 0.00 -- 37.6 25.0
10/23/2018 07:00 573.47 0.00 -- 37.8 26.0
10/23/2018 06:00 573.46 0.00 -- 38.4 26.0
10/23/2018 05:00 573.46 0.00 -- 38.8 26.0
10/23/2018 04:00 573.50 0.00 -- 39.0 27.0
10/23/2018 03:00 573.50 0.00 -- 38.1 27.0
10/23/2018 02:00 573.48 0.00 -- 39.4 27.0
10/23/2018 01:00 573.47 0.00 -- 40.4 27.0
10/23/2018 00:00 573.49 0.00 0.46 40.3 28.0
10/22/2018 23:00 573.49 0.00 -- 40.4 28.0
10/22/2018 22:00 573.49 0.00 -- 39.2 28.0
10/22/2018 21:00 573.50 0.00 -- 36.4 29.0
10/22/2018 20:00 573.49 0.00 -- 38.0 30.0
10/22/2018 19:00 573.50 0.00 -- 39.3 31.0
10/22/2018 18:00 573.51 0.00 -- 43.4 32.0
10/22/2018 17:00 573.52 0.00 -- 44.9 33.0
10/22/2018 16:00 573.52 0.00 -- 43.6 33.0
10/22/2018 15:00 573.53 0.00 -- 43.5 34.0
10/22/2018 14:00 573.54 0.00 -- 41.3 36.0
10/22/2018 13:00 573.51 0.00 -- 40.2 36.0
10/22/2018 12:00 573.55 0.00 -- 38.6 33.0
10/22/2018 11:00 573.55 0.00 -- 36.9 33.0
10/22/2018 10:00 573.54 0.00 -- 35.5 32.0
10/22/2018 09:00 573.54 0.00 -- 33.8 32.0
10/22/2018 08:00 573.55 0.00 -- 33.7 32.0
10/22/2018 07:00 573.54 0.00 -- 31.7 34.0
10/22/2018 06:00 573.56 0.00 -- 34.4 35.0
10/22/2018 05:00 573.57 0.00 -- 34.3 37.0
10/22/2018 04:00 573.57 0.00 -- 35.2 41.0
10/22/2018 03:00 573.59 0.00 -- 35.4 38.0
10/22/2018 02:00 573.58 0.00 -- 34.6 38.0
10/22/2018 01:00 573.57 0.00 -- 33.6 43.0
10/22/2018 00:00 573.55 0.00 0.00 32.3 52.0
10/21/2018 23:00 573.56 0.00 -- 35.6 62.0
10/21/2018 22:00 573.59 0.00 -- 36.3 75.0
10/21/2018 21:00 573.58 0.00 -- 36.3 65.0
10/21/2018 20:00 573.60 0.00 -- 36.2 80.0
10/21/2018 19:00 573.61 0.00 -- 36.8 100.0
10/21/2018 18:00 573.63 0.00 -- 37.6 100.0
10/21/2018 17:00 573.63 0.00 -- 39.0 89.0
10/21/2018 16:00 573.59 0.00 -- 39.0 75.0
10/21/2018 15:00 573.57 0.00 -- 39.2 65.0
10/21/2018 14:00 573.63 0.00 -- 39.7 60.0
10/21/2018 13:00 573.62 0.00 -- 41.3 37.0
10/21/2018 12:00 573.61 0.00 -- 40.5 31.0
10/21/2018 11:00 573.64 0.00 -- 41.6 28.0
10/21/2018 10:00 573.63 0.00 -- 42.0 28.0
10/21/2018 09:00 573.61 0.00 -- 42.6 26.0
10/21/2018 08:00 573.63 0.00 -- 43.3 24.0
10/21/2018 07:00 573.63 0.00 -- 42.5 24.0
10/21/2018 06:00 573.65 0.00 -- 43.8 24.0
10/21/2018 05:00 573.62 0.00 -- 44.5 24.0
10/21/2018 04:00 573.63 0.00 -- 41.9 24.0
10/21/2018 03:00 573.63 0.00 -- 40.2 24.0
10/21/2018 02:00 573.61 0.00 -- 39.7 25.0
10/21/2018 01:00 573.64 0.00 -- 38.3 25.0
10/21/2018 00:00 573.64 0.00 0.00 39.3 25.0
10/20/2018 23:00 573.64 0.00 -- 40.8 24.0
10/20/2018 22:00 573.64 0.00 -- 44.0 25.0
10/20/2018 21:00 573.65 0.00 -- 45.8 24.0
10/20/2018 20:00 573.66 0.00 -- 47.6 24.0
10/20/2018 19:00 573.65 0.00 -- 51.3 24.0
10/20/2018 18:00 573.67 0.00 -- 58.2 25.0
10/20/2018 17:00 573.66 0.00 -- 59.4 24.0
10/20/2018 16:00 573.63 0.00 -- 58.5 24.0
10/20/2018 15:00 573.65 0.00 -- 58.5 24.0
10/20/2018 14:00 573.63 0.00 -- 58.4 24.0
10/20/2018 13:00 573.66 0.00 -- 56.9 24.0
10/20/2018 12:00 573.68 0.00 -- 55.6 24.0
10/20/2018 11:00 573.70 0.00 -- 53.9 24.0
10/20/2018 10:00 573.69 0.00 -- 52.2 24.0
10/20/2018 09:00 573.68 0.00 -- 48.9 24.0
10/20/2018 08:00 573.68 0.00 -- 49.1 24.0
10/20/2018 07:00 573.67 0.00 -- 50.6 24.0
10/20/2018 06:00 573.67 0.00 -- 50.7 24.0
10/20/2018 05:00 573.66 0.00 -- 50.2 24.0
10/20/2018 04:00 573.69 0.00 -- 49.9 24.0
10/20/2018 03:00 573.70 0.00 -- 49.6 24.0
10/20/2018 02:00 573.69 0.00 -- 49.1 24.0
10/20/2018 01:00 573.71 0.00 -- 48.1 24.0
10/20/2018 00:00 573.72 0.00 0.00 50.3 24.0
10/19/2018 23:00 573.73 0.00 -- 50.5 25.0
10/19/2018 22:00 573.74 0.00 -- 49.3 26.0
10/19/2018 21:00 573.73 0.00 -- 50.0 26.0
10/19/2018 20:00 573.70 0.00 -- 47.5 26.0
10/19/2018 19:00 573.70 0.00 -- 50.1 26.0
10/19/2018 18:00 573.72 0.00 -- 54.8 26.0
10/19/2018 17:00 573.72 0.00 -- 55.8 25.0
10/19/2018 16:00 573.72 0.00 -- 54.6 26.0
10/19/2018 15:00 573.74 0.00 -- 53.1 26.0
10/19/2018 14:00 573.74 0.00 -- 50.4 26.0
10/19/2018 13:00 573.75 0.00 -- 46.7 26.0
10/19/2018 12:00 573.74 0.00 -- 45.2 27.0
10/19/2018 11:00 573.75 0.00 -- 42.6 27.0
10/19/2018 10:00 573.74 0.00 -- 39.8 27.0
10/19/2018 09:00 573.74 0.00 -- 34.2 27.0
10/19/2018 08:00 573.75 0.00 -- 31.4 27.0
10/19/2018 07:00 573.75 0.00 -- 33.3 27.0
10/19/2018 06:00 573.76 0.00 -- 33.9 28.0
10/19/2018 05:00 573.79 0.00 -- 34.9 28.0
10/19/2018 04:00 573.78 0.00 -- 34.0 28.0
10/19/2018 03:00 573.76 0.00 -- 34.0 29.0
10/19/2018 02:00 573.74 0.00 -- 31.8 31.0
10/19/2018 01:00 573.77 0.00 -- 32.6 32.0
10/19/2018 00:00 573.80 0.00 0.00 31.6 34.0
10/18/2018 23:00 573.79 0.00 -- 31.7 34.0
10/18/2018 22:00 573.78 0.00 -- 33.8 39.0
10/18/2018 21:00 573.79 0.00 -- 34.7 41.0
10/18/2018 20:00 573.81 0.00 -- 38.2 54.0
10/18/2018 19:00 573.82 0.00 -- 38.5 65.0
10/18/2018 18:00 573.81 0.00 -- 39.1 62.0
10/18/2018 17:00 573.76 0.00 -- 39.6 57.0
10/18/2018 16:00 573.81 0.00 -- 39.5 55.0
10/18/2018 15:00 573.78 0.00 -- 39.4 53.0
10/18/2018 14:00 573.87 0.00 -- 38.9 47.0
10/18/2018 13:00 573.85 0.00 -- 38.4 41.0
10/18/2018 12:00 573.78 0.00 -- 36.7 45.0
10/18/2018 11:00 573.80 0.00 -- 36.1 36.0
10/18/2018 10:00 573.86 0.00 -- 35.3 35.0
10/18/2018 09:00 573.85 0.00 -- 35.3 33.0
10/18/2018 08:00 573.86 0.00 -- 34.7 29.0
10/18/2018 07:00 573.85 0.00 -- 34.2 28.0
10/18/2018 06:00 573.83 0.00 -- 34.7 29.0
10/18/2018 05:00 573.85 0.00 -- 36.5 27.0
10/18/2018 04:00 573.87 0.00 -- 36.6 26.0
10/18/2018 03:00 573.85 0.00 -- 37.7 26.0
10/18/2018 02:00 573.89 0.00 -- 38.9 26.0
10/18/2018 01:00 573.88 0.00 -- 38.4 25.0
10/18/2018 00:00 573.89 0.00 0.00 40.2 25.0
10/17/2018 23:00 573.86 0.00 -- 37.2 24.0
10/17/2018 22:00 573.88 0.00 -- 38.8 24.0
10/17/2018 21:00 573.86 0.00 -- 41.6 23.0
10/17/2018 20:00 573.83 0.04 -- 42.9 23.0
10/17/2018 19:00 573.87 0.00 -- 44.0 23.0
10/17/2018 18:00 573.86 0.01 -- 45.4 23.0
10/17/2018 17:00 573.91 0.00 -- 49.6 23.0
10/17/2018 16:00 573.86 0.00 -- 53.6 23.0
10/17/2018 15:00 573.89 0.00 -- 53.3 24.0
10/17/2018 14:00 573.88 0.00 -- 52.0 25.0
10/17/2018 13:00 573.91 0.00 -- 51.6 25.0
10/17/2018 12:00 573.94 0.00 -- 47.4 25.0
10/17/2018 11:00 573.89 0.00 -- 44.9 24.0
10/17/2018 10:00 573.90 0.00 -- 43.6 25.0
10/17/2018 09:00 573.89 0.00 -- 42.6 26.0
10/17/2018 08:00 573.89 0.00 -- 42.4 26.0
10/17/2018 07:00 573.90 0.00 -- 42.3 26.0
10/17/2018 06:00 573.91 0.00 -- 41.7 27.0
10/17/2018 05:00 573.91 0.00 -- 39.6 27.0
10/17/2018 04:00 573.91 0.00 -- 37.6 29.0
10/17/2018 03:00 573.91 0.00 -- 38.4 29.0
10/17/2018 02:00 573.93 0.00 -- 40.7 28.0
10/17/2018 01:00 573.92 0.00 -- 41.5 28.0
10/17/2018 00:00 573.93 0.00 0.05 42.6 27.0
10/16/2018 23:00 573.94 0.00 -- 42.4 27.0
10/16/2018 22:00 573.94 0.00 -- 41.9 27.0
10/16/2018 21:00 573.94 0.00 -- 41.9 27.0
10/16/2018 20:00 573.95 0.00 -- 42.7 26.0
10/16/2018 19:00 573.95 0.00 -- 46.5 26.0
10/16/2018 18:00 573.95 0.00 -- 50.9 29.0
10/16/2018 17:00 573.93 0.00 -- 51.7 31.0
10/16/2018 16:00 573.97 0.00 -- 51.7 33.0
10/16/2018 15:00 573.96 0.00 -- 51.5 34.0
10/16/2018 14:00 573.95 0.00 -- 50.0 35.0
10/16/2018 13:00 573.95 0.00 -- 48.2 36.0
10/16/2018 12:00 573.96 0.00 -- 46.6 43.0
10/16/2018 11:00 574.05 0.00 -- 45.0 41.0
10/16/2018 10:00 574.00 0.00 -- 43.7 45.0
10/16/2018 09:00 574.01 0.00 -- 42.3 51.0
10/16/2018 08:00 574.03 0.00 -- 43.0 94.0
10/16/2018 07:00 573.95 0.00 -- 44.4 83.0
10/16/2018 06:00 574.01 0.00 -- 45.9 64.0
10/16/2018 05:00 574.05 0.00 -- 47.8 37.0
10/16/2018 04:00 573.98 0.00 -- 50.5 25.0
10/16/2018 03:00 574.02 0.01 -- 52.9 23.0
10/16/2018 02:00 574.02 0.05 -- 53.8 22.0
10/16/2018 01:00 574.02 0.07 -- 54.2 23.0
10/16/2018 00:00 573.99 0.00 0.13 59.6 23.0
10/15/2018 23:00 574.02 0.00 -- 56.6 24.0
10/15/2018 22:00 574.02 0.00 -- 54.9 24.0
10/15/2018 21:00 574.00 0.00 -- 54.9 25.0
10/15/2018 20:00 574.01 0.00 -- 53.6 26.0
10/15/2018 19:00 574.02 0.00 -- 51.7 26.0
10/15/2018 18:00 574.03 0.00 -- 50.9 27.0
10/15/2018 17:00 574.05 0.04 -- 49.9 26.0
10/15/2018 16:00 574.01 0.02 -- 48.3 26.0
10/15/2018 15:00 574.00 0.04 -- 46.1 26.0
10/15/2018 14:00 574.03 0.03 -- 45.3 29.0
10/15/2018 13:00 574.01 0.03 -- 44.7 30.0
10/15/2018 12:00 574.03 0.00 -- 44.4 39.0
10/15/2018 11:00 574.07 0.00 -- 44.7 39.0
10/15/2018 10:00 574.02 0.00 -- 40.6 39.0
10/15/2018 09:00 574.02 0.00 -- 37.4 40.0
10/15/2018 08:00 574.04 0.00 -- 36.6 39.0
10/15/2018 07:00 574.04 0.00 -- 36.7 40.0
10/15/2018 06:00 574.04 0.00 -- 37.0 40.0
10/15/2018 05:00 574.05 0.00 -- 36.9 40.0
10/15/2018 04:00 574.04 0.00 -- 36.6 39.0
10/15/2018 03:00 574.04 0.00 -- 37.7 39.0
10/15/2018 02:00 574.03 0.00 -- 38.0 38.0
10/15/2018 01:00 574.05 0.00 -- 38.3 38.0
10/15/2018 00:00 574.05 0.00 0.16 38.5 38.0
10/14/2018 23:00 574.04 0.00 -- 39.7 39.0
10/14/2018 22:00 574.05 0.00 -- 40.6 38.0
10/14/2018 21:00 574.04 0.00 -- 42.2 38.0
10/14/2018 20:00 574.04 0.00 -- 44.5 40.0
10/14/2018 19:00 574.06 0.00 -- 47.6 39.0
10/14/2018 18:00 574.05 0.00 -- 52.1 39.0
10/14/2018 17:00 574.03 0.00 -- 53.0 38.0
10/14/2018 16:00 574.07 0.00 -- 52.7 37.0
10/14/2018 15:00 574.06 0.00 -- 51.5 37.0
10/14/2018 14:00 574.08 0.00 -- 48.7 36.0
10/14/2018 13:00 574.06 0.00 -- 48.1 35.0
10/14/2018 12:00 574.07 0.00 -- 46.1 35.0
10/14/2018 11:00 574.07 0.00 -- 44.7 34.0
10/14/2018 10:00 574.07 0.00 -- 42.8 33.0
10/14/2018 09:00 574.07 0.00 -- 40.4 34.0
10/14/2018 08:00 574.08 0.00 -- 40.0 33.0
10/14/2018 07:00 574.07 0.00 -- 40.4 33.0
10/14/2018 06:00 574.08 0.00 -- 40.3 33.0
10/14/2018 05:00 574.08 0.01 -- 41.2 32.0
10/14/2018 04:00 574.08 0.00 -- 41.4 33.0
10/14/2018 03:00 574.08 0.00 -- 40.1 32.0
10/14/2018 02:00 574.06 0.00 -- 37.7 32.0
10/14/2018 01:00 574.07 0.00 -- 37.9 32.0
10/14/2018 00:00 574.08 0.00 0.01 39.2 32.0
10/13/2018 23:00 574.09 0.00 -- 38.6 32.0
10/13/2018 22:00 574.08 0.00 -- 39.0 32.0
10/13/2018 21:00 574.10 0.00 -- 40.0 31.0
10/13/2018 20:00 574.08 0.00 -- 40.4 31.0
10/13/2018 19:00 574.10 0.00 -- 46.4 32.0
10/13/2018 18:00 574.07 0.01 -- 46.1 32.0
10/13/2018 17:00 574.09 0.00 -- 46.2 33.0
10/13/2018 16:00 574.09 0.00 -- 45.3 33.0
10/13/2018 15:00 574.09 0.00 -- 44.3 33.0
10/13/2018 14:00 574.10 0.00 -- 42.8 33.0
10/13/2018 13:00 574.10 0.00 -- 43.0 34.0
10/13/2018 12:00 574.11 0.03 -- 42.9 33.0
10/13/2018 11:00 574.09 0.02 -- 43.6 34.0
10/13/2018 10:00 574.10 0.00 -- 45.1 35.0
10/13/2018 09:00 574.10 0.00 -- 43.5 35.0
10/13/2018 08:00 574.09 0.00 -- 42.7 35.0
10/13/2018 07:00 574.09 0.00 -- 41.8 36.0
10/13/2018 06:00 574.09 0.00 -- 41.3 37.0
10/13/2018 05:00 574.09 0.00 -- 41.0 38.0
10/13/2018 04:00 574.09 0.00 -- 39.6 39.0
10/13/2018 03:00 574.10 0.00 -- 40.4 39.0
10/13/2018 02:00 574.10 0.00 -- 41.0 40.0
10/13/2018 01:00 574.11 0.00 -- 42.5 40.0
10/13/2018 00:00 574.11 0.00 0.06 44.7 42.0
10/12/2018 23:00 574.12 0.00 -- 48.5 46.0
10/12/2018 22:00 574.08 0.00 -- 48.7 49.0
10/12/2018 21:00 574.14 0.00 -- 49.5 49.0
10/12/2018 20:00 574.13 0.00 -- 50.3 52.0
10/12/2018 19:00 574.08 0.00 -- 52.4 53.0
10/12/2018 18:00 574.11 0.00 -- 53.7 45.0
10/12/2018 17:00 574.13 0.00 -- 54.2 42.0
10/12/2018 16:00 574.15 0.00 -- 56.0 27.0
10/12/2018 15:00 574.12 0.00 -- 55.9 24.0
10/12/2018 14:00 574.12 0.00 -- 54.2 23.0
10/12/2018 13:00 574.11 0.00 -- 54.1 22.0
10/12/2018 12:00 574.08 0.00 -- 53.3 22.0
10/12/2018 11:00 574.09 0.00 -- 52.4 22.0
10/12/2018 10:00 574.16 0.00 -- 52.3 22.0
10/12/2018 09:00 574.15 0.00 -- 52.0 22.0
10/12/2018 08:00 574.08 0.00 -- 51.3 22.0
10/12/2018 07:00 574.14 0.00 -- 50.8 22.0
10/12/2018 06:00 574.13 0.00 -- 50.4 22.0
10/12/2018 05:00 574.17 0.00 -- 50.2 22.0
10/12/2018 04:00 574.16 0.00 -- 50.6 22.0
10/12/2018 03:00 574.11 0.00 -- 50.3 22.0
10/12/2018 02:00 574.08 0.00 -- 50.8 22.0
10/12/2018 01:00 574.13 0.00 -- 50.6 22.0
10/12/2018 00:00 574.16 0.00 0.00 50.7 22.0
10/11/2018 23:00 574.16 0.00 -- 50.4 22.0
10/11/2018 22:00 574.15 0.00 -- 50.5 24.0
10/11/2018 21:00 574.14 0.00 -- 50.6 22.0
10/11/2018 20:00 574.18 0.01 -- 51.0 22.0
10/11/2018 19:00 574.11 0.05 -- 50.6 22.0
10/11/2018 18:00 574.14 0.05 -- 50.5 22.0
10/11/2018 17:00 574.13 0.03 -- 51.3 22.0
10/11/2018 16:00 574.12 0.06 -- 51.3 23.0
10/11/2018 15:00 574.12 0.06 -- 50.9 24.0
10/11/2018 14:00 574.11 0.02 -- 50.8 25.0
10/11/2018 13:00 574.09 0.04 -- 50.9 23.0
10/11/2018 12:00 574.11 0.11 -- 50.6 22.0
10/11/2018 11:00 574.11 0.07 -- 50.2 22.0
10/11/2018 10:00 574.10 0.20 -- 50.0 22.0
10/11/2018 09:00 574.10 0.07 -- 50.3 22.0
10/11/2018 08:00 574.07 0.02 -- 50.5 22.0
10/11/2018 07:00 574.08 0.01 -- 51.0 22.0
10/11/2018 06:00 574.11 0.00 -- 52.6 22.0
10/11/2018 05:00 574.10 0.00 -- 53.7 22.0
10/11/2018 04:00 574.07 0.00 -- 54.3 22.0
10/11/2018 03:00 574.08 0.00 -- 55.0 22.0
10/11/2018 02:00 574.06 0.00 -- 55.5 22.0
10/11/2018 01:00 574.07 0.00 -- 57.1 22.0
10/11/2018 00:00 574.09 0.00 0.80 58.3 21.0
10/10/2018 23:00 574.11 0.00 -- 64.4 22.0
10/10/2018 22:00 574.09 0.00 -- 64.9 21.0
10/10/2018 21:00 574.09 0.00 -- 66.3 21.0
10/10/2018 20:00 574.09 0.00 -- 68.2 22.0
10/10/2018 19:00 574.10 0.00 -- 70.2 21.0
10/10/2018 18:00 574.09 0.00 -- 73.6 21.0
10/10/2018 17:00 574.09 0.00 -- 76.8 21.0
10/10/2018 16:00 574.09 0.00 -- 77.1 22.0
10/10/2018 15:00 574.11 0.00 -- 76.2 23.0
10/10/2018 14:00 574.09 0.00 -- 75.9 23.0
10/10/2018 13:00 574.09 0.00 -- 74.7 22.0
10/10/2018 12:00 574.10 0.00 -- 73.1 21.0
10/10/2018 11:00 574.10 0.00 -- 71.0 21.0
10/10/2018 10:00 574.10 0.00 -- 69.6 21.0
10/10/2018 09:00 574.11 0.00 -- 64.0 21.0
10/10/2018 08:00 574.10 0.00 -- 62.9 21.0
10/10/2018 07:00 574.11 0.00 -- 63.0 21.0
10/10/2018 06:00 574.11 0.00 -- 63.0 21.0
10/10/2018 05:00 574.10 0.00 -- 63.4 21.0
10/10/2018 04:00 574.11 0.00 -- 64.7 21.0
10/10/2018 03:00 574.12 0.00 -- 65.2 21.0
10/10/2018 02:00 574.12 0.00 -- 66.5 21.0
10/10/2018 01:00 574.10 0.00 -- 67.8 21.0
10/10/2018 00:00 574.11 0.00 0.00 67.9 22.0
10/09/2018 23:00 574.11 0.00 -- 69.1 21.0
10/09/2018 22:00 574.12 0.00 -- 69.4 21.0
10/09/2018 21:00 574.12 0.00 -- 70.0 21.0
10/09/2018 20:00 574.11 0.00 -- 70.2 20.0
10/09/2018 19:00 574.12 0.00 -- 70.2 20.0
10/09/2018 18:00 574.12 0.00 -- 73.0 20.0
10/09/2018 17:00 574.13 0.00 -- 74.8 20.0
10/09/2018 16:00 574.12 0.00 -- 74.5 20.0
10/09/2018 15:00 574.12 0.00 -- 73.6 21.0
10/09/2018 14:00 574.14 0.00 -- 71.8 21.0
10/09/2018 13:00 574.12 0.00 -- 69.2 21.0
10/09/2018 12:00 574.14 0.00 -- 65.6 21.0
10/09/2018 11:00 574.13 0.00 -- 60.9 21.0
10/09/2018 10:00 574.14 0.00 -- 57.9 22.0
10/09/2018 09:00 574.13 0.00 -- 55.5 22.0
10/09/2018 08:00 574.15 0.00 -- 55.2 22.0
10/09/2018 07:00 574.13 0.00 -- 55.3 22.0
10/09/2018 06:00 574.15 0.00 -- 53.8 23.0
10/09/2018 05:00 574.13 0.00 -- 52.6 23.0
10/09/2018 04:00 574.14 0.00 -- 51.5 24.0
10/09/2018 03:00 574.13 0.00 -- 50.7 22.0
10/09/2018 02:00 574.13 0.00 -- 50.1 22.0
10/09/2018 01:00 574.12 0.00 -- 48.8 22.0
10/09/2018 00:00 574.14 0.00 0.00 47.5 22.0
10/08/2018 23:00 574.14 0.00 -- 47.2 22.0
10/08/2018 22:00 574.15 0.00 -- 46.7 22.0
10/08/2018 21:00 574.15 0.00 -- 47.0 21.0
10/08/2018 20:00 574.16 0.00 -- 47.4 21.0
10/08/2018 19:00 574.16 0.00 -- 47.9 22.0
10/08/2018 18:00 574.15 0.00 -- 48.3 22.0
10/08/2018 17:00 574.14 0.00 -- 48.6 22.0
10/08/2018 16:00 574.16 0.00 -- 49.3 22.0
10/08/2018 15:00 574.16 0.00 -- 48.9 22.0
10/08/2018 14:00 574.16 0.00 -- 47.7 22.0
10/08/2018 13:00 574.17 0.00 -- 46.7 23.0
10/08/2018 12:00 574.16 0.00 -- 46.1 23.0
10/08/2018 11:00 574.12 0.00 -- 44.8 23.0
10/08/2018 10:00 574.16 0.00 -- 44.2 22.0
10/08/2018 09:00 574.17 0.00 -- 43.8 22.0
10/08/2018 08:00 574.18 0.00 -- 44.4 22.0
10/08/2018 07:00 574.19 0.01 -- 45.6 22.0
10/08/2018 06:00 574.17 0.00 -- 46.0 22.0
10/08/2018 05:00 574.15 0.00 -- 47.1 22.0
10/08/2018 04:00 574.17 0.00 -- 48.2 22.0
10/08/2018 03:00 574.16 0.01 -- 49.4 22.0
10/08/2018 02:00 574.18 0.00 -- 51.8 20.0
10/08/2018 01:00 574.18 0.00 -- 52.7 20.0
10/08/2018 00:00 574.17 0.01 0.02 52.9 20.0
10/07/2018 23:00 574.19 0.00 -- 53.2 20.0
10/07/2018 22:00 574.19 0.01 -- 53.5 20.0
10/07/2018 21:00 574.19 0.01 -- 56.6 20.0
10/07/2018 20:00 574.18 0.00 -- 58.3 20.0
10/07/2018 19:00 574.19 0.00 -- 59.3 21.0
10/07/2018 18:00 574.19 0.00 -- 60.3 20.0
10/07/2018 17:00 574.19 0.00 -- 61.5 20.0
10/07/2018 16:00 574.19 0.00 -- 63.1 20.0
10/07/2018 15:00 574.19 0.00 -- 63.7 20.0
10/07/2018 14:00 574.19 0.00 -- 63.4 20.0
10/07/2018 13:00 574.18 0.00 -- 64.1 21.0
10/07/2018 12:00 574.20 0.00 -- 61.9 21.0
10/07/2018 11:00 574.22 0.00 -- 59.7 21.0
10/07/2018 10:00 574.20 0.00 -- 58.3 21.0
10/07/2018 09:00 574.19 0.00 -- 58.7 20.0
10/07/2018 08:00 574.19 0.00 -- 58.1 21.0
10/07/2018 07:00 574.21 0.00 -- 57.4 21.0
10/07/2018 06:00 574.23 0.00 -- 55.2 21.0
10/07/2018 05:00 574.18 0.00 -- 55.0 21.0
10/07/2018 04:00 574.17 0.00 -- 55.6 22.0
10/07/2018 03:00 574.24 0.00 -- 55.0 21.0
10/07/2018 02:00 574.23 0.00 -- 54.0 21.0
10/07/2018 01:00 574.20 0.00 -- 53.5 22.0
10/07/2018 00:00 574.20 0.00 0.03 53.5 22.0
10/06/2018 23:00 574.24 0.00 -- 52.9 22.0
10/06/2018 22:00 574.20 0.00 -- 53.0 22.0
10/06/2018 21:00 574.22 0.00 -- 53.7 22.0
10/06/2018 20:00 574.21 0.00 -- 54.0 22.0
10/06/2018 19:00 574.19 0.00 -- 55.4 22.0
10/06/2018 18:00 574.22 0.00 -- 56.3 22.0
10/06/2018 17:00 574.21 0.00 -- 56.9 23.0
10/06/2018 16:00 574.22 0.00 -- 56.8 23.0
10/06/2018 15:00 574.20 0.00 -- 57.5 23.0
10/06/2018 14:00 574.23 0.00 -- 57.2 23.0
10/06/2018 13:00 574.23 0.00 -- 56.2 23.0
10/06/2018 12:00 574.22 0.00 -- 55.5 23.0
10/06/2018 11:00 574.24 0.00 -- 51.6 23.0
10/06/2018 10:00 574.22 0.00 -- 47.2 23.0
10/06/2018 09:00 574.23 0.00 -- 45.8 23.0
10/06/2018 08:00 574.25 0.00 -- 42.9 23.0
10/06/2018 07:00 574.23 0.00 -- 42.8 23.0
10/06/2018 06:00 574.25 0.00 -- 43.4 23.0
10/06/2018 05:00 574.26 0.00 -- 44.2 24.0
10/06/2018 04:00 574.24 0.00 -- 43.2 23.0
10/06/2018 03:00 574.24 0.00 -- 43.7 23.0
10/06/2018 02:00 574.25 0.00 -- 44.1 23.0
10/06/2018 01:00 574.26 0.00 -- 44.8 23.0
10/06/2018 00:00 574.27 0.00 0.00 44.9 22.0
10/05/2018 23:00 574.25 0.00 -- 46.3 21.0
10/05/2018 22:00 574.25 0.00 -- 46.9 21.0
10/05/2018 21:00 574.22 0.00 -- 47.3 21.0
10/05/2018 20:00 574.26 0.00 -- 47.2 21.0
10/05/2018 19:00 574.26 0.00 -- 52.4 21.0
10/05/2018 18:00 574.27 0.00 -- 54.7 22.0
10/05/2018 17:00 574.26 0.00 -- 55.6 22.0
10/05/2018 16:00 574.27 0.00 -- 56.8 22.0
10/05/2018 15:00 574.27 0.00 -- 56.0 22.0
10/05/2018 14:00 574.28 0.00 -- 54.2 22.0
10/05/2018 13:00 574.27 0.00 -- 52.2 22.0
10/05/2018 12:00 574.27 0.00 -- 50.3 22.0
10/05/2018 11:00 574.25 0.00 -- 48.4 22.0
10/05/2018 10:00 574.25 0.00 -- 47.0 22.0
10/05/2018 09:00 574.27 0.00 -- 45.1 21.0
10/05/2018 08:00 574.24 0.00 -- 43.8 21.0
10/05/2018 07:00 574.27 0.00 -- 46.7 21.0
10/05/2018 06:00 574.28 0.00 -- 49.5 21.0
10/05/2018 05:00 574.26 0.00 -- 53.7 20.0
10/05/2018 04:00 574.28 0.00 -- 56.7 20.0
10/05/2018 03:00 574.28 0.00 -- 58.5 20.0
10/05/2018 02:00 574.29 0.00 -- 61.3 20.0
10/05/2018 01:00 574.28 0.00 -- 63.0 20.0
10/05/2018 00:00 574.29 0.00 0.00 62.2 20.0
10/04/2018 23:00 574.30 0.00 -- 61.5 20.0
10/04/2018 22:00 574.29 0.00 -- 61.4 20.0
10/04/2018 21:00 574.30 0.00 -- 62.6 20.0
10/04/2018 20:00 574.28 0.00 -- 63.7 20.0
10/04/2018 19:00 574.28 0.00 -- 64.2 20.0
10/04/2018 18:00 574.29 0.00 -- 64.6 20.0
10/04/2018 17:00 574.29 0.00 -- 65.1 21.0
10/04/2018 16:00 574.28 0.00 -- 64.8 21.0
10/04/2018 15:00 574.28 0.00 -- 64.6 20.0
10/04/2018 14:00 574.28 0.00 -- 63.8 20.0
10/04/2018 13:00 574.31 0.00 -- 63.0 20.0
10/04/2018 12:00 574.33 0.00 -- 61.3 20.0
10/04/2018 11:00 574.27 0.00 -- 59.6 20.0
10/04/2018 10:00 574.27 0.00 -- 58.1 20.0
10/04/2018 09:00 574.32 0.00 -- 56.9 20.0
10/04/2018 08:00 574.31 0.00 -- 56.4 20.0
10/04/2018 07:00 574.30 0.00 -- 56.3 20.0
10/04/2018 06:00 574.30 0.00 -- 56.5 20.0
10/04/2018 05:00 574.30 0.00 -- 56.3 20.0
10/04/2018 04:00 574.31 0.00 -- 56.3 20.0
10/04/2018 03:00 574.32 0.00 -- 56.4 20.0
10/04/2018 02:00 574.33 0.00 -- 57.0 20.0
10/04/2018 01:00 574.31 0.00 -- 57.1 20.0
10/04/2018 00:00 574.31 0.00 0.00 57.1 20.0
10/03/2018 23:00 574.32 0.00 -- 57.4 20.0
10/03/2018 22:00 574.31 0.00 -- 57.2 20.0
10/03/2018 21:00 574.32 0.00 -- 57.5 21.0
10/03/2018 20:00 574.32 0.00 -- 58.4 21.0
10/03/2018 19:00 574.32 0.00 -- 59.1 21.0
10/03/2018 18:00 574.32 0.00 -- 60.1 21.0
10/03/2018 17:00 574.32 0.00 -- 60.8 21.0
10/03/2018 16:00 574.31 0.00 -- 60.4 21.0
10/03/2018 15:00 574.33 0.00 -- 58.6 26.0
10/03/2018 14:00 574.34 0.00 -- 56.3 26.0
10/03/2018 13:00 574.32 0.00 -- 53.8 26.0
10/03/2018 12:00 574.32 0.00 -- 52.6 25.0
10/03/2018 11:00 574.33 0.00 -- 51.2 26.0
10/03/2018 10:00 574.35 0.00 -- 50.1 26.0
10/03/2018 09:00 574.34 0.00 -- 48.8 26.0
10/03/2018 08:00 574.30 0.00 -- 48.6 26.0
10/03/2018 07:00 574.32 0.00 -- 48.5 26.0
10/03/2018 06:00 574.33 0.01 -- 48.1 26.0
10/03/2018 05:00 574.33 0.18 -- 48.4 28.0
10/03/2018 04:00 574.32 0.01 -- 48.2 27.0
10/03/2018 03:00 574.31 0.02 -- 47.7 26.0
10/03/2018 02:00 574.32 0.00 -- 47.8 28.0
10/03/2018 01:00 574.31 0.01 -- 48.2 28.0
10/03/2018 00:00 574.33 0.00 0.23 48.2 29.0
10/02/2018 23:00 574.32 0.00 -- 48.4 28.0
10/02/2018 22:00 574.32 0.00 -- 48.2 27.0
10/02/2018 21:00 574.31 0.02 -- 48.8 25.0
10/02/2018 20:00 574.32 0.17 -- 48.8 26.0
10/02/2018 19:00 574.35 0.35 -- 48.7 27.0
10/02/2018 18:00 574.29 0.13 -- 49.4 27.0
10/02/2018 17:00 574.26 0.11 -- 49.7 27.0
10/02/2018 16:00 574.26 0.15 -- 49.8 27.0
10/02/2018 15:00 574.26 0.01 -- 49.8 28.0
10/02/2018 14:00 574.25 0.01 -- 50.0 29.0
10/02/2018 13:00 574.26 0.00 -- 49.5 30.0
10/02/2018 12:00 574.24 0.00 -- 49.6 30.0
10/02/2018 11:00 574.28 0.01 -- 49.4 30.0
10/02/2018 10:00 574.25 0.01 -- 49.0 31.0
10/02/2018 09:00 574.28 0.01 -- 48.9 32.0
10/02/2018 08:00 574.17 0.07 -- 49.0 31.0
10/02/2018 07:00 574.28 0.02 -- 49.5 34.0
10/02/2018 06:00 574.28 0.00 -- 49.6 33.0
10/02/2018 05:00 574.27 0.00 -- 50.1 35.0
10/02/2018 04:00 574.26 0.00 -- 49.8 35.0
10/02/2018 03:00 574.27 0.00 -- 50.1 36.0
10/02/2018 02:00 574.26 0.00 -- 50.2 38.0
10/02/2018 01:00 574.27 0.00 -- 50.3 38.0
10/02/2018 00:00 574.27 0.00 1.07 50.4 38.0
10/01/2018 23:00 574.25 0.00 -- 50.3 39.0
10/01/2018 22:00 574.27 0.00 -- 50.4 40.0
10/01/2018 21:00 574.27 0.00 -- 50.2 42.0
10/01/2018 20:00 574.25 0.00 -- 50.4 41.0
10/01/2018 19:00 574.28 0.00 -- 50.7 43.0
10/01/2018 18:00 574.29 0.00 -- 50.7 45.0
10/01/2018 17:00 574.29 0.00 -- 50.9 50.0
10/01/2018 16:00 574.29 0.00 -- 51.5 52.0
10/01/2018 15:00 574.27 0.00 -- 51.7 53.0
10/01/2018 14:00 574.29 0.01 -- 52.3 55.0
10/01/2018 13:00 574.25 0.04 -- 51.9 55.0
10/01/2018 12:00 574.28 0.04 -- 51.6 52.0
10/01/2018 11:00 574.28 0.01 -- 51.7 50.0
10/01/2018 10:00 574.26 0.07 -- 51.2 84.0
10/01/2018 09:00 574.27 0.05 -- 52.4 90.0
10/01/2018 08:00 574.27 0.00 -- 51.9 94.0
10/01/2018 07:00 574.27 0.00 -- 51.7 96.0
10/01/2018 06:00 574.29 0.00 -- 52.0 97.0
10/01/2018 05:00 574.28 0.00 -- 51.0 98.0
10/01/2018 04:00 574.28 0.00 -- 50.4 100.0
10/01/2018 03:00 574.27 0.00 -- 50.1 98.0
10/01/2018 02:00 574.26 0.00 -- 49.5 100.0
10/01/2018 01:00 574.28 0.00 -- 48.5 99.0
10/01/2018 00:00 574.27 0.00 0.22 47.8 99.0
09/30/2018 23:00 574.29 0.00 -- 48.2 100.0
09/30/2018 22:00 574.29 0.00 -- 48.3 100.0
09/30/2018 21:00 574.28 0.00 -- 48.7 100.0
09/30/2018 20:00 574.28 0.00 -- 50.9 100.0
09/30/2018 19:00 574.29 0.00 -- 54.9 100.0
09/30/2018 18:00 574.29 0.00 -- 60.0 100.0
09/30/2018 17:00 574.27 0.00 -- 60.8 100.0
09/30/2018 16:00 574.30 0.00 -- 60.8 98.0
09/30/2018 15:00 574.29 0.00 -- 59.6 90.0
09/30/2018 14:00 574.33 0.00 -- 59.0 80.0
09/30/2018 13:00 574.30 0.00 -- 58.8 70.0
09/30/2018 12:00 574.28 0.00 -- 57.6 68.0
09/30/2018 11:00 574.27 0.00 -- 53.8 67.0
09/30/2018 10:00 574.29 0.00 -- 52.0 66.0
09/30/2018 09:00 574.30 0.00 -- 49.6 64.0
09/30/2018 08:00 574.29 0.00 -- 47.3 60.0
09/30/2018 07:00 574.30 0.00 -- 46.7 60.0
09/30/2018 06:00 574.31 0.00 -- 49.3 57.0
09/30/2018 05:00 574.30 0.00 -- 47.5 55.0
09/30/2018 04:00 574.30 0.00 -- 48.3 56.0
09/30/2018 03:00 574.30 0.00 -- 49.2 56.0
09/30/2018 02:00 574.30 0.00 -- 48.9 56.0
09/30/2018 01:00 574.30 0.00 -- 46.6 55.0
09/30/2018 00:00 574.31 0.00 0.00 46.2 54.0
09/29/2018 23:00 574.30 0.00 -- 47.7 53.0
09/29/2018 22:00 574.32 0.00 -- 48.1 49.0
09/29/2018 21:00 574.31 0.00 -- 50.2 50.0
09/29/2018 20:00 574.31 0.00 -- 52.7 50.0
09/29/2018 19:00 574.31 0.00 -- 57.1 46.0
09/29/2018 18:00 574.31 0.00 -- 62.4 45.0
09/29/2018 17:00 574.32 0.00 -- 63.3 42.0
09/29/2018 16:00 574.32 0.00 -- 63.7 41.0
09/29/2018 15:00 574.34 0.00 -- 63.6 39.0
09/29/2018 14:00 574.33 0.00 -- 62.9 37.0
09/29/2018 13:00 574.32 0.00 -- 62.1 35.0
09/29/2018 12:00 574.33 0.00 -- 60.2 34.0
09/29/2018 11:00 574.34 0.00 -- 58.9 34.0
09/29/2018 10:00 574.32 0.00 -- 56.5 34.0
09/29/2018 09:00 574.32 0.00 -- 54.5 34.0
09/29/2018 08:00 574.34 0.00 -- 54.1 35.0
09/29/2018 07:00 574.33 0.00 -- 54.6 36.0
09/29/2018 06:00 574.32 0.00 -- 54.1 36.0
09/29/2018 05:00 574.33 0.00 -- 51.5 35.0
09/29/2018 04:00 574.33 0.00 -- 51.2 36.0
09/29/2018 03:00 574.33 0.00 -- 52.2 36.0
09/29/2018 02:00 574.35 0.00 -- 51.0 35.0
09/29/2018 01:00 574.33 0.00 -- 50.7 34.0
09/29/2018 00:00 574.32 0.00 0.00 50.2 35.0
09/28/2018 23:00 574.34 0.00 -- 51.1 35.0
09/28/2018 22:00 574.34 0.00 -- 51.6 34.0
09/28/2018 21:00 574.34 0.00 -- 52.3 35.0
09/28/2018 20:00 574.33 0.00 -- 53.9 34.0
09/28/2018 19:00 574.34 0.00 -- 57.6 33.0
09/28/2018 18:00 574.35 0.00 -- 59.2 33.0
09/28/2018 17:00 574.35 0.00 -- 59.8 32.0
09/28/2018 16:00 574.35 0.00 -- 59.3 32.0
09/28/2018 15:00 574.36 0.00 -- 58.0 32.0
09/28/2018 14:00 574.34 0.00 -- 57.0 31.0
09/28/2018 13:00 574.34 0.00 -- 55.2 31.0
09/28/2018 12:00 574.34 0.01 -- 54.2 31.0
09/28/2018 11:00 574.36 0.00 -- 53.3 30.0
09/28/2018 10:00 574.37 0.00 -- 52.8 30.0
09/28/2018 09:00 574.34 0.01 -- 52.7 30.0
09/28/2018 08:00 574.35 0.02 -- 53.0 30.0
09/28/2018 07:00 574.34 0.03 -- 53.1 30.0
09/28/2018 06:00 574.33 0.00 -- 53.4 29.0
09/28/2018 05:00 574.33 0.01 -- 53.5 29.0
09/28/2018 04:00 574.36 0.00 -- 54.1 29.0
09/28/2018 03:00 574.37 0.00 -- 54.4 28.0
09/28/2018 02:00 574.35 0.00 -- 53.6 29.0
09/28/2018 01:00 574.36 0.00 -- 54.1 29.0
09/28/2018 00:00 574.37 0.00 0.08 54.7 29.0
09/27/2018 23:00 574.31 0.00 -- 55.2 28.0
09/27/2018 22:00 574.36 0.00 -- 56.2 27.0
09/27/2018 21:00 574.35 0.00 -- 57.2 27.0
09/27/2018 20:00 574.35 0.00 -- 57.7 27.0
09/27/2018 19:00 574.35 0.00 -- 59.0 27.0
09/27/2018 18:00 574.35 0.00 -- 61.4 26.0
09/27/2018 17:00 574.37 0.00 -- 63.5 26.0
09/27/2018 16:00 574.35 0.00 -- 66.0 26.0
09/27/2018 15:00 574.36 0.00 -- 64.4 25.0
09/27/2018 14:00 574.36 0.00 -- 63.1 26.0
09/27/2018 13:00 574.36 0.00 -- 62.1 25.0
09/27/2018 12:00 574.36 0.00 -- 60.7 25.0
09/27/2018 11:00 574.37 0.00 -- 58.1 25.0
09/27/2018 10:00 574.38 0.00 -- 57.5 25.0
09/27/2018 09:00 574.35 0.00 -- 55.0 25.0
09/27/2018 08:00 574.35 0.00 -- 54.3 25.0
09/27/2018 07:00 574.36 0.00 -- 55.8 24.0
09/27/2018 06:00 574.36 0.00 -- 57.1 24.0
09/27/2018 05:00 574.36 0.00 -- 59.6 24.0
09/27/2018 04:00 574.37 0.00 -- 60.8 24.0
09/27/2018 03:00 574.34 0.00 -- 64.9 24.0
09/27/2018 02:00 574.37 0.01 -- 67.5 24.0
09/27/2018 01:00 574.37 0.00 -- 67.8 25.0
09/27/2018 00:00 574.35 0.00 0.01 68.2 27.0
09/26/2018 23:00 574.37 0.07 -- 69.5 26.0
09/26/2018 22:00 574.36 0.00 -- 71.7 25.0
09/26/2018 21:00 574.36 0.00 -- 72.8 25.0
09/26/2018 20:00 574.33 0.00 -- 72.5 24.0
09/26/2018 19:00 574.35 0.00 -- 75.3 24.0
09/26/2018 18:00 574.38 0.00 -- 74.8 24.0
09/26/2018 17:00 574.33 0.00 -- 77.4 24.0
09/26/2018 16:00 574.33 0.00 -- 77.5 25.0
09/26/2018 15:00 574.34 0.00 -- 74.1 26.0
09/26/2018 14:00 574.38 0.00 -- 72.6 26.0
09/26/2018 13:00 574.36 0.00 -- 70.4 28.0
09/26/2018 12:00 574.35 0.00 -- 69.6 29.0
09/26/2018 11:00 574.36 0.00 -- 68.2 33.0
09/26/2018 10:00 574.35 0.00 -- 65.4 43.0
09/26/2018 09:00 574.37 0.00 -- 64.0 53.0
09/26/2018 08:00 574.37 0.00 -- 61.7 76.0
09/26/2018 07:00 574.36 0.00 -- 58.4 91.0
09/26/2018 06:00 574.34 0.01 -- 56.1 94.0
09/26/2018 05:00 574.34 0.00 -- 55.9 100.0
09/26/2018 04:00 574.36 0.00 -- 55.3 100.0
09/26/2018 03:00 574.34 0.01 -- 55.1 100.0
09/26/2018 02:00 574.33 0.06 -- 55.0 100.0
09/26/2018 01:00 574.32 0.02 -- 54.9 100.0
09/26/2018 00:00 574.31 0.30 0.17 54.5 100.0
09/25/2018 23:00 574.29 0.21 -- 54.0 100.0
09/25/2018 22:00 574.29 0.14 -- 56.8 100.0
09/25/2018 21:00 574.26 0.33 -- 57.4 100.0
09/25/2018 20:00 574.25 0.33 -- 56.8 100.0
09/25/2018 19:00 574.24 0.15 -- 56.8 100.0
09/25/2018 18:00 574.20 0.28 -- 56.3 100.0
09/25/2018 17:00 574.16 0.13 -- 55.7 100.0
09/25/2018 16:00 574.18 0.07 -- 52.6 100.0
09/25/2018 15:00 574.18 0.05 -- 50.4 100.0
09/25/2018 14:00 574.18 0.05 -- 49.7 100.0
09/25/2018 13:00 574.16 0.02 -- 48.9 100.0
09/25/2018 12:00 574.16 0.00 -- 48.9 100.0
09/25/2018 11:00 574.16 0.00 -- 47.3 100.0
09/25/2018 10:00 574.16 0.00 -- 45.4 100.0
09/25/2018 09:00 574.17 0.00 -- 44.1 100.0
09/25/2018 08:00 574.18 0.00 -- 42.3 100.0
09/25/2018 07:00 574.17 0.00 -- 42.1 100.0
09/25/2018 06:00 574.16 0.00 -- 41.8 100.0
09/25/2018 05:00 574.18 0.00 -- 41.3 100.0
09/25/2018 04:00 574.18 0.00 -- 41.1 100.0
09/25/2018 03:00 574.18 0.00 -- 41.6 100.0
09/25/2018 02:00 574.17 0.00 -- 41.2 100.0
09/25/2018 01:00 574.19 0.00 -- 40.3 100.0
09/25/2018 00:00 574.17 0.00 2.06 41.4 100.0
09/24/2018 23:00 574.18 0.00 -- 41.6 100.0
09/24/2018 22:00 574.18 0.00 -- 42.8 100.0
09/24/2018 21:00 574.19 0.00 -- 44.4 100.0
09/24/2018 20:00 574.18 0.00 -- 47.0 100.0
09/24/2018 19:00 574.18 0.00 -- 49.3 100.0
09/24/2018 18:00 574.20 0.00 -- 52.0 100.0
09/24/2018 17:00 574.19 0.00 -- 54.2 100.0
09/24/2018 16:00 574.19 0.00 -- 55.8 100.0
09/24/2018 15:00 574.19 0.00 -- 54.1 100.0
09/24/2018 14:00 574.18 0.00 -- 52.8 100.0
09/24/2018 13:00 574.19 0.00 -- 50.7 100.0
09/24/2018 12:00 574.18 0.00 -- 49.4 100.0
09/24/2018 11:00 574.20 0.00 -- 47.8 100.0
09/24/2018 10:00 574.23 0.00 -- 46.9 100.0
09/24/2018 09:00 574.20 0.00 -- 46.0 100.0
09/24/2018 08:00 574.21 0.00 -- 46.1 100.0
09/24/2018 07:00 574.20 0.00 -- 46.5 100.0
09/24/2018 06:00 574.20 0.00 -- 47.1 100.0
09/24/2018 05:00 574.21 0.00 -- 47.8 100.0
09/24/2018 04:00 574.20 0.00 -- 48.3 100.0
09/24/2018 03:00 574.21 0.00 -- 49.0 100.0
09/24/2018 02:00 574.21 0.00 -- 48.7 100.0
09/24/2018 01:00 574.22 0.00 -- 48.6 100.0
09/24/2018 00:00 574.23 0.00 0.00 49.9 100.0
09/23/2018 23:00 574.22 0.00 -- 49.7 100.0
09/23/2018 22:00 574.22 0.00 -- 50.4 100.0
09/23/2018 21:00 574.21 0.00 -- 50.4 100.0
09/23/2018 20:00 574.22 0.00 -- 52.8 100.0
09/23/2018 19:00 574.22 0.00 -- 57.9 100.0
09/23/2018 18:00 574.22 0.00 -- 61.4 100.0
09/23/2018 17:00 574.22 0.00 -- 63.4 100.0
09/23/2018 16:00 574.24 0.00 -- 63.4 100.0
09/23/2018 15:00 574.23 0.00 -- 62.1 100.0
09/23/2018 14:00 574.23 0.00 -- 60.5 100.0
09/23/2018 13:00 574.22 0.00 -- 58.5 100.0
09/23/2018 12:00 574.24 0.00 -- 56.5 100.0
09/23/2018 11:00 574.24 0.00 -- 53.2 100.0
09/23/2018 10:00 574.23 0.00 -- 48.7 100.0
09/23/2018 09:00 574.24 0.00 -- 46.3 100.0
09/23/2018 08:00 574.24 0.00 -- 44.8 100.0
09/23/2018 07:00 574.24 0.00 -- 44.3 100.0
09/23/2018 06:00 574.24 0.00 -- 44.6 100.0
09/23/2018 05:00 574.23 0.00 -- 44.6 100.0
09/23/2018 04:00 574.26 0.00 -- 45.3 100.0
09/23/2018 03:00 574.23 0.00 -- 46.1 100.0
09/23/2018 02:00 574.25 0.00 -- 46.5 100.0
09/23/2018 01:00 574.23 0.00 -- 47.0 100.0
09/23/2018 00:00 574.24 0.00 0.00 47.6 100.0
09/22/2018 23:00 574.25 0.00 -- 47.8 100.0
09/22/2018 22:00 574.25 0.00 -- 48.3 100.0
09/22/2018 21:00 574.24 0.00 -- 51.1 100.0
09/22/2018 20:00 574.25 0.00 -- 52.7 100.0
09/22/2018 19:00 574.24 0.00 -- 56.7 100.0
09/22/2018 18:00 574.25 0.00 -- 60.2 100.0
09/22/2018 17:00 574.25 0.00 -- 60.8 100.0
09/22/2018 16:00 574.25 0.00 -- 61.8 100.0
09/22/2018 15:00 574.25 0.00 -- 61.2 100.0
09/22/2018 14:00 574.25 0.00 -- 60.4 100.0
09/22/2018 13:00 574.27 0.00 -- 61.1 100.0
09/22/2018 12:00 574.28 0.00 -- 62.0 100.0
09/22/2018 11:00 574.27 0.00 -- 61.4 100.0
09/22/2018 10:00 574.27 0.00 -- 61.9 84.0
09/22/2018 09:00 574.29 0.00 -- 64.1 34.0
09/22/2018 08:00 574.26 0.00 -- 65.5 29.0
09/22/2018 07:00 574.27 0.01 -- 65.6 29.0
09/22/2018 06:00 574.27 0.00 -- 67.0 30.0
09/22/2018 05:00 574.27 0.00 -- 68.1 31.0
09/22/2018 04:00 574.21 0.00 -- 67.4 33.0
09/22/2018 03:00 574.31 0.00 -- 66.7 33.0
09/22/2018 02:00 574.25 0.00 -- 65.3 34.0
09/22/2018 01:00 574.23 0.00 -- 63.4 35.0
09/22/2018 00:00 574.26 0.00 0.01 62.8 35.0
09/21/2018 23:00 574.26 0.00 -- 62.0 35.0
09/21/2018 22:00 574.26 0.00 -- 61.8 35.0
09/21/2018 21:00 574.26 0.00 -- 61.5 36.0
09/21/2018 20:00 574.27 0.00 -- 60.9 36.0
09/21/2018 19:00 574.26 0.00 -- 60.7 36.0
09/21/2018 18:00 574.28 0.00 -- 61.0 36.0
09/21/2018 17:00 574.28 0.00 -- 61.1 36.0
09/21/2018 16:00 574.27 0.00 -- 61.5 36.0
09/21/2018 15:00 574.25 0.00 -- 60.7 36.0
09/21/2018 14:00 574.26 0.00 -- 60.2 35.0
09/21/2018 13:00 574.27 0.00 -- 60.3 34.0
09/21/2018 12:00 574.25 0.00 -- 59.4 34.0
09/21/2018 11:00 574.28 0.00 -- 58.2 32.0
09/21/2018 10:00 574.30 0.00 -- 57.5 33.0
09/21/2018 09:00 574.27 0.00 -- 56.0 32.0
09/21/2018 08:00 574.27 0.00 -- 55.8 33.0
09/21/2018 07:00 574.27 0.00 -- 55.6 34.0
09/21/2018 06:00 574.28 0.00 -- 55.6 35.0
09/21/2018 05:00 574.27 0.00 -- 55.0 35.0
09/21/2018 04:00 574.28 0.00 -- 54.6 37.0
09/21/2018 03:00 574.29 0.00 -- 54.7 37.0
09/21/2018 02:00 574.28 0.00 -- 54.5 37.0
09/21/2018 01:00 574.29 0.00 -- 54.1 36.0
09/21/2018 00:00 574.28 0.00 0.00 54.5 37.0
09/20/2018 23:00 574.28 0.00 -- 54.9 36.0
09/20/2018 22:00 574.29 0.00 -- 55.6 36.0
09/20/2018 21:00 574.30 0.00 -- 56.1 36.0
09/20/2018 20:00 574.29 0.00 -- 56.5 36.0
09/20/2018 19:00 574.27 0.00 -- 57.9 37.0
09/20/2018 18:00 574.26 0.00 -- 59.2 37.0
09/20/2018 17:00 574.29 0.00 -- 59.9 37.0
09/20/2018 16:00 574.28 0.00 -- 60.3 37.0
09/20/2018 15:00 574.29 0.00 -- 60.1 37.0
09/20/2018 14:00 574.30 0.00 -- 60.2 36.0
09/20/2018 13:00 574.28 0.00 -- 59.5 37.0
09/20/2018 12:00 574.28 0.00 -- 58.7 37.0
09/20/2018 11:00 574.29 0.01 -- 57.7 37.0
09/20/2018 10:00 574.27 0.01 -- 55.2 37.0
09/20/2018 09:00 574.30 0.00 -- 55.5 38.0
09/20/2018 08:00 574.29 0.00 -- 55.5 38.0
09/20/2018 07:00 574.30 0.00 -- 55.2 38.0
09/20/2018 06:00 574.29 0.00 -- 55.7 38.0
09/20/2018 05:00 574.28 0.00 -- 55.5 39.0
09/20/2018 04:00 574.29 0.00 -- 55.9 37.0
09/20/2018 03:00 574.30 0.00 -- 56.3 39.0
09/20/2018 02:00 574.30 0.00 -- 56.6 38.0
09/20/2018 01:00 574.31 0.00 -- 56.8 37.0
09/20/2018 00:00 574.30 0.00 0.02 57.5 37.0
09/19/2018 23:00 574.30 0.00 -- 58.4 36.0
09/19/2018 22:00 574.29 0.00 -- 58.8 36.0
09/19/2018 21:00 574.31 0.00 -- 59.5 36.0
09/19/2018 20:00 574.30 0.00 -- 59.8 36.0
09/19/2018 19:00 574.29 0.00 -- 60.7 36.0
09/19/2018 18:00 574.30 0.00 -- 61.5 36.0
09/19/2018 17:00 574.30 0.00 -- 61.6 35.0
09/19/2018 16:00 574.32 0.00 -- 61.3 34.0
09/19/2018 15:00 574.30 0.00 -- 61.0 35.0
09/19/2018 14:00 574.30 0.00 -- 59.4 33.0
09/19/2018 13:00 574.31 0.00 -- 57.6 32.0
09/19/2018 12:00 574.30 0.00 -- 56.9 34.0
09/19/2018 11:00 574.30 0.00 -- 56.6 34.0
09/19/2018 10:00 574.30 0.00 -- 56.2 34.0
09/19/2018 09:00 574.31 0.00 -- 56.4 32.0
09/19/2018 08:00 574.31 0.00 -- 56.8 32.0
09/19/2018 07:00 574.29 0.00 -- 58.2 35.0
09/19/2018 06:00 574.31 0.00 -- 59.1 34.0
09/19/2018 05:00 574.31 0.00 -- 60.6 33.0
09/19/2018 04:00 574.32 0.00 -- 62.6 31.0
09/19/2018 03:00 574.31 0.00 -- 65.6 32.0
09/19/2018 02:00 574.31 0.00 -- 67.3 32.0
09/19/2018 01:00 574.30 0.00 -- 67.3 32.0
09/19/2018 00:00 574.31 0.00 0.00 66.9 26.0
09/18/2018 23:00 574.32 0.00 -- 67.9 26.0
09/18/2018 22:00 574.31 0.00 -- 69.1 27.0
09/18/2018 21:00 574.31 0.00 -- 69.5 26.0
09/18/2018 20:00 574.31 0.00 -- 70.7 27.0
09/18/2018 19:00 574.32 0.00 -- 72.0 27.0
09/18/2018 18:00 574.30 0.00 -- 72.6 27.0
09/18/2018 17:00 574.31 0.00 -- 75.5 28.0
09/18/2018 16:00 574.31 0.00 -- 75.5 34.0
09/18/2018 15:00 574.31 0.00 -- 74.7 35.0
09/18/2018 14:00 -- -- -- 72.2 35.0
09/18/2018 13:00 -- -- -- 69.2 35.0
09/18/2018 12:00 -- -- -- 67.9 35.0
09/18/2018 11:00 -- -- -- 67.6 36.0
09/18/2018 10:00 -- -- -- 67.3 37.0
09/18/2018 09:00 -- -- -- 67.8 38.0
09/18/2018 08:00 -- -- -- 68.1 38.0
09/18/2018 07:00 -- -- -- 68.4 38.0
09/18/2018 06:00 -- -- -- 68.5 38.0
09/18/2018 05:00 -- -- -- 68.6 38.0
09/18/2018 04:00 -- -- -- 69.6 34.0
09/18/2018 03:00 -- -- -- 69.6 32.0
09/18/2018 02:00 -- -- -- 68.5 31.0
09/18/2018 01:00 -- -- -- 68.4 31.0
09/18/2018 00:00 -- -- 0.52 69.6 31.0